<?xml version="1.0" encoding="UTF-8"?><gpx creator="Wikiloc - https://www.wikiloc.com" version="1.1" xmlns="http://www.topografix.com/GPX/1/1" xmlns:xsi="http://www.w3.org/2001/XMLSchema-instance" xsi:schemaLocation="http://www.topografix.com/GPX/1/1 http://www.topografix.com/GPX/1/1/gpx.xsd"><metadata><name>Wikiloc - Paseos Rurales - Sierra de Palanque</name><author><name>Red Extremeña de Desarrollo Rural (REDEX)</name><link href="https://www.wikiloc.com/wikiloc/user.do?id=2006209"><text>Red Extremeña de Desarrollo Rural (REDEX) on Wikiloc</text></link></author><link href="https://www.wikiloc.com/hiking-trails/paseos-rurales-sierra-de-palanque-30884124"><text>Paseos Rurales - Sierra de Palanque on Wikiloc</text></link><time>2018-11-27T17:58:58Z</time></metadata><trk><name>Paseos Rurales - Sierra de Palanque</name><cmt></cmt><desc></desc><trkseg><trkpt lat="38.819481" lon="-5.115605"><ele>426.974</ele><time>1970-01-01T00:00:00Z</time></trkpt><trkpt lat="38.819436" lon="-5.115589"><ele>427.456</ele><time>1970-01-01T00:00:00Z</time></trkpt><trkpt lat="38.819401" lon="-5.115581"><ele>427.821</ele><time>1970-01-01T00:00:00Z</time></trkpt><trkpt lat="38.819354" lon="-5.115583"><ele>428.408</ele><time>1970-01-01T00:00:00Z</time></trkpt><trkpt lat="38.819304" lon="-5.115592"><ele>429.020</ele><time>1970-01-01T00:00:00Z</time></trkpt><trkpt lat="38.819256" lon="-5.115571"><ele>429.627</ele><time>1970-01-01T00:00:00Z</time></trkpt><trkpt lat="38.819218" lon="-5.115559"><ele>430.195</ele><time>1970-01-01T00:00:00Z</time></trkpt><trkpt lat="38.819193" lon="-5.115543"><ele>430.485</ele><time>1970-01-01T00:00:00Z</time></trkpt><trkpt lat="38.819171" lon="-5.115539"><ele>430.751</ele><time>1970-01-01T00:00:00Z</time></trkpt><trkpt lat="38.819141" lon="-5.115526"><ele>431.258</ele><time>1970-01-01T00:00:00Z</time></trkpt><trkpt lat="38.819120" lon="-5.115512"><ele>431.449</ele><time>1970-01-01T00:00:00Z</time></trkpt><trkpt lat="38.819051" lon="-5.115420"><ele>432.551</ele><time>1970-01-01T00:00:00Z</time></trkpt><trkpt lat="38.819067" lon="-5.115326"><ele>432.134</ele><time>1970-01-01T00:00:00Z</time></trkpt><trkpt lat="38.819103" lon="-5.115266"><ele>431.655</ele><time>1970-01-01T00:00:00Z</time></trkpt><trkpt lat="38.819119" lon="-5.115225"><ele>431.310</ele><time>1970-01-01T00:00:00Z</time></trkpt><trkpt lat="38.819123" lon="-5.115192"><ele>431.208</ele><time>1970-01-01T00:00:00Z</time></trkpt><trkpt lat="38.819126" lon="-5.115140"><ele>431.236</ele><time>1970-01-01T00:00:00Z</time></trkpt><trkpt lat="38.819108" lon="-5.115086"><ele>431.553</ele><time>1970-01-01T00:00:00Z</time></trkpt><trkpt lat="38.819070" lon="-5.114972"><ele>432.141</ele><time>1970-01-01T00:00:00Z</time></trkpt><trkpt lat="38.819036" lon="-5.114901"><ele>432.781</ele><time>1970-01-01T00:00:00Z</time></trkpt><trkpt lat="38.818993" lon="-5.114799"><ele>433.487</ele><time>1970-01-01T00:00:00Z</time></trkpt><trkpt lat="38.818973" lon="-5.114688"><ele>433.224</ele><time>1970-01-01T00:00:00Z</time></trkpt><trkpt lat="38.818961" lon="-5.114578"><ele>432.995</ele><time>1970-01-01T00:00:00Z</time></trkpt><trkpt lat="38.818951" lon="-5.114490"><ele>432.647</ele><time>1970-01-01T00:00:00Z</time></trkpt><trkpt lat="38.818957" lon="-5.114418"><ele>431.958</ele><time>1970-01-01T00:00:00Z</time></trkpt><trkpt lat="38.818937" lon="-5.114285"><ele>431.252</ele><time>1970-01-01T00:00:00Z</time></trkpt><trkpt lat="38.818865" lon="-5.114155"><ele>431.317</ele><time>1970-01-01T00:00:00Z</time></trkpt><trkpt lat="38.818789" lon="-5.114053"><ele>431.908</ele><time>1970-01-01T00:00:00Z</time></trkpt><trkpt lat="38.818586" lon="-5.113795"><ele>432.998</ele><time>1970-01-01T00:00:00Z</time></trkpt><trkpt lat="38.818291" lon="-5.113390"><ele>432.775</ele><time>1970-01-01T00:00:00Z</time></trkpt><trkpt lat="38.817848" lon="-5.112875"><ele>421.853</ele><time>1970-01-01T00:00:00Z</time></trkpt><trkpt lat="38.817486" lon="-5.112250"><ele>409.043</ele><time>1970-01-01T00:00:00Z</time></trkpt><trkpt lat="38.817295" lon="-5.111883"><ele>402.929</ele><time>1970-01-01T00:00:00Z</time></trkpt><trkpt lat="38.817006" lon="-5.111572"><ele>401.936</ele><time>1970-01-01T00:00:00Z</time></trkpt><trkpt lat="38.816891" lon="-5.111413"><ele>402.287</ele><time>1970-01-01T00:00:00Z</time></trkpt><trkpt lat="38.816692" lon="-5.111151"><ele>402.939</ele><time>1970-01-01T00:00:00Z</time></trkpt><trkpt lat="38.816665" lon="-5.111095"><ele>402.918</ele><time>1970-01-01T00:00:00Z</time></trkpt><trkpt lat="38.816657" lon="-5.111022"><ele>402.798</ele><time>1970-01-01T00:00:00Z</time></trkpt><trkpt lat="38.816684" lon="-5.110979"><ele>402.417</ele><time>1970-01-01T00:00:00Z</time></trkpt><trkpt lat="38.816719" lon="-5.110974"><ele>402.108</ele><time>1970-01-01T00:00:00Z</time></trkpt><trkpt lat="38.816767" lon="-5.110969"><ele>401.854</ele><time>1970-01-01T00:00:00Z</time></trkpt><trkpt lat="38.816818" lon="-5.110963"><ele>401.481</ele><time>1970-01-01T00:00:00Z</time></trkpt><trkpt lat="38.816872" lon="-5.110963"><ele>401.139</ele><time>1970-01-01T00:00:00Z</time></trkpt><trkpt lat="38.816891" lon="-5.110958"><ele>400.989</ele><time>1970-01-01T00:00:00Z</time></trkpt><trkpt lat="38.816899" lon="-5.110867"><ele>400.725</ele><time>1970-01-01T00:00:00Z</time></trkpt><trkpt lat="38.816842" lon="-5.110845"><ele>401.082</ele><time>1970-01-01T00:00:00Z</time></trkpt><trkpt lat="38.816824" lon="-5.110813"><ele>401.053</ele><time>1970-01-01T00:00:00Z</time></trkpt><trkpt lat="38.816786" lon="-5.110759"><ele>401.275</ele><time>1970-01-01T00:00:00Z</time></trkpt><trkpt lat="38.816684" lon="-5.110708"><ele>401.799</ele><time>1970-01-01T00:00:00Z</time></trkpt><trkpt lat="38.816647" lon="-5.110666"><ele>401.807</ele><time>1970-01-01T00:00:00Z</time></trkpt><trkpt lat="38.816631" lon="-5.110599"><ele>401.727</ele><time>1970-01-01T00:00:00Z</time></trkpt><trkpt lat="38.816668" lon="-5.110459"><ele>400.908</ele><time>1970-01-01T00:00:00Z</time></trkpt><trkpt lat="38.816724" lon="-5.110234"><ele>399.812</ele><time>1970-01-01T00:00:00Z</time></trkpt><trkpt lat="38.816791" lon="-5.110008"><ele>399.139</ele><time>1970-01-01T00:00:00Z</time></trkpt><trkpt lat="38.816821" lon="-5.109944"><ele>398.847</ele><time>1970-01-01T00:00:00Z</time></trkpt><trkpt lat="38.816816" lon="-5.109885"><ele>398.747</ele><time>1970-01-01T00:00:00Z</time></trkpt><trkpt lat="38.816757" lon="-5.109818"><ele>398.973</ele><time>1970-01-01T00:00:00Z</time></trkpt><trkpt lat="38.816695" lon="-5.109679"><ele>399.250</ele><time>1970-01-01T00:00:00Z</time></trkpt><trkpt lat="38.816622" lon="-5.109536"><ele>399.271</ele><time>1970-01-01T00:00:00Z</time></trkpt><trkpt lat="38.816488" lon="-5.109311"><ele>399.073</ele><time>1970-01-01T00:00:00Z</time></trkpt><trkpt lat="38.816135" lon="-5.108766"><ele>402.541</ele><time>1970-01-01T00:00:00Z</time></trkpt><trkpt lat="38.815334" lon="-5.107479"><ele>411.481</ele><time>1970-01-01T00:00:00Z</time></trkpt><trkpt lat="38.815253" lon="-5.107412"><ele>411.709</ele><time>1970-01-01T00:00:00Z</time></trkpt><trkpt lat="38.815224" lon="-5.107372"><ele>411.808</ele><time>1970-01-01T00:00:00Z</time></trkpt><trkpt lat="38.815199" lon="-5.107304"><ele>411.877</ele><time>1970-01-01T00:00:00Z</time></trkpt><trkpt lat="38.815194" lon="-5.107245"><ele>411.614</ele><time>1970-01-01T00:00:00Z</time></trkpt><trkpt lat="38.815199" lon="-5.107176"><ele>411.842</ele><time>1970-01-01T00:00:00Z</time></trkpt><trkpt lat="38.815232" lon="-5.107106"><ele>412.152</ele><time>1970-01-01T00:00:00Z</time></trkpt><trkpt lat="38.815258" lon="-5.107015"><ele>412.758</ele><time>1970-01-01T00:00:00Z</time></trkpt><trkpt lat="38.815275" lon="-5.106940"><ele>413.445</ele><time>1970-01-01T00:00:00Z</time></trkpt><trkpt lat="38.815285" lon="-5.106865"><ele>414.056</ele><time>1970-01-01T00:00:00Z</time></trkpt><trkpt lat="38.815285" lon="-5.106781"><ele>414.798</ele><time>1970-01-01T00:00:00Z</time></trkpt><trkpt lat="38.815296" lon="-5.106706"><ele>415.374</ele><time>1970-01-01T00:00:00Z</time></trkpt><trkpt lat="38.815299" lon="-5.106639"><ele>415.956</ele><time>1970-01-01T00:00:00Z</time></trkpt><trkpt lat="38.815299" lon="-5.106578"><ele>416.521</ele><time>1970-01-01T00:00:00Z</time></trkpt><trkpt lat="38.815111" lon="-5.106124"><ele>421.308</ele><time>1970-01-01T00:00:00Z</time></trkpt><trkpt lat="38.814754" lon="-5.105234"><ele>430.640</ele><time>1970-01-01T00:00:00Z</time></trkpt><trkpt lat="38.814542" lon="-5.104866"><ele>434.877</ele><time>1970-01-01T00:00:00Z</time></trkpt><trkpt lat="38.814108" lon="-5.104260"><ele>442.225</ele><time>1970-01-01T00:00:00Z</time></trkpt><trkpt lat="38.813737" lon="-5.103680"><ele>450.055</ele><time>1970-01-01T00:00:00Z</time></trkpt><trkpt lat="38.813563" lon="-5.103364"><ele>453.751</ele><time>1970-01-01T00:00:00Z</time></trkpt><trkpt lat="38.813491" lon="-5.103195"><ele>455.668</ele><time>1970-01-01T00:00:00Z</time></trkpt><trkpt lat="38.813485" lon="-5.103119"><ele>456.679</ele><time>1970-01-01T00:00:00Z</time></trkpt><trkpt lat="38.813523" lon="-5.103085"><ele>457.321</ele><time>1970-01-01T00:00:00Z</time></trkpt><trkpt lat="38.813560" lon="-5.103077"><ele>457.571</ele><time>1970-01-01T00:00:00Z</time></trkpt><trkpt lat="38.813668" lon="-5.103058"><ele>458.141</ele><time>1970-01-01T00:00:00Z</time></trkpt><trkpt lat="38.813896" lon="-5.103050"><ele>458.615</ele><time>1970-01-01T00:00:00Z</time></trkpt><trkpt lat="38.814094" lon="-5.103069"><ele>458.508</ele><time>1970-01-01T00:00:00Z</time></trkpt><trkpt lat="38.814260" lon="-5.103074"><ele>458.760</ele><time>1970-01-01T00:00:00Z</time></trkpt><trkpt lat="38.814365" lon="-5.103039"><ele>459.437</ele><time>1970-01-01T00:00:00Z</time></trkpt><trkpt lat="38.814695" lon="-5.102999"><ele>459.545</ele><time>1970-01-01T00:00:00Z</time></trkpt><trkpt lat="38.814822" lon="-5.102984"><ele>459.265</ele><time>1970-01-01T00:00:00Z</time></trkpt><trkpt lat="38.814929" lon="-5.102998"><ele>458.591</ele><time>1970-01-01T00:00:00Z</time></trkpt><trkpt lat="38.815012" lon="-5.103003"><ele>458.048</ele><time>1970-01-01T00:00:00Z</time></trkpt><trkpt lat="38.815055" lon="-5.102993"><ele>457.929</ele><time>1970-01-01T00:00:00Z</time></trkpt><trkpt lat="38.815114" lon="-5.102942"><ele>458.461</ele><time>1970-01-01T00:00:00Z</time></trkpt><trkpt lat="38.815170" lon="-5.102896"><ele>458.816</ele><time>1970-01-01T00:00:00Z</time></trkpt><trkpt lat="38.815224" lon="-5.102861"><ele>459.076</ele><time>1970-01-01T00:00:00Z</time></trkpt><trkpt lat="38.815304" lon="-5.102802"><ele>459.413</ele><time>1970-01-01T00:00:00Z</time></trkpt><trkpt lat="38.815369" lon="-5.102781"><ele>459.308</ele><time>1970-01-01T00:00:00Z</time></trkpt><trkpt lat="38.815503" lon="-5.102719"><ele>459.364</ele><time>1970-01-01T00:00:00Z</time></trkpt><trkpt lat="38.815597" lon="-5.102657"><ele>459.611</ele><time>1970-01-01T00:00:00Z</time></trkpt><trkpt lat="38.815683" lon="-5.102598"><ele>459.999</ele><time>1970-01-01T00:00:00Z</time></trkpt><trkpt lat="38.815763" lon="-5.102553"><ele>460.289</ele><time>1970-01-01T00:00:00Z</time></trkpt><trkpt lat="38.815887" lon="-5.102480"><ele>460.785</ele><time>1970-01-01T00:00:00Z</time></trkpt><trkpt lat="38.815996" lon="-5.102419"><ele>460.832</ele><time>1970-01-01T00:00:00Z</time></trkpt><trkpt lat="38.816092" lon="-5.102348"><ele>460.863</ele><time>1970-01-01T00:00:00Z</time></trkpt><trkpt lat="38.816180" lon="-5.102275"><ele>460.975</ele><time>1970-01-01T00:00:00Z</time></trkpt><trkpt lat="38.816242" lon="-5.102218"><ele>461.021</ele><time>1970-01-01T00:00:00Z</time></trkpt><trkpt lat="38.816297" lon="-5.102153"><ele>461.241</ele><time>1970-01-01T00:00:00Z</time></trkpt><trkpt lat="38.816349" lon="-5.102093"><ele>461.505</ele><time>1970-01-01T00:00:00Z</time></trkpt><trkpt lat="38.816403" lon="-5.102025"><ele>461.708</ele><time>1970-01-01T00:00:00Z</time></trkpt><trkpt lat="38.816486" lon="-5.101920"><ele>461.685</ele><time>1970-01-01T00:00:00Z</time></trkpt><trkpt lat="38.816553" lon="-5.101830"><ele>461.312</ele><time>1970-01-01T00:00:00Z</time></trkpt><trkpt lat="38.816579" lon="-5.101768"><ele>461.350</ele><time>1970-01-01T00:00:00Z</time></trkpt><trkpt lat="38.816599" lon="-5.101727"><ele>461.280</ele><time>1970-01-01T00:00:00Z</time></trkpt><trkpt lat="38.816609" lon="-5.101691"><ele>461.376</ele><time>1970-01-01T00:00:00Z</time></trkpt><trkpt lat="38.816636" lon="-5.101641"><ele>461.243</ele><time>1970-01-01T00:00:00Z</time></trkpt><trkpt lat="38.816675" lon="-5.101586"><ele>460.924</ele><time>1970-01-01T00:00:00Z</time></trkpt><trkpt lat="38.816725" lon="-5.101530"><ele>460.686</ele><time>1970-01-01T00:00:00Z</time></trkpt><trkpt lat="38.816785" lon="-5.101471"><ele>460.419</ele><time>1970-01-01T00:00:00Z</time></trkpt><trkpt lat="38.816828" lon="-5.101414"><ele>460.609</ele><time>1970-01-01T00:00:00Z</time></trkpt><trkpt lat="38.816927" lon="-5.101300"><ele>460.819</ele><time>1970-01-01T00:00:00Z</time></trkpt><trkpt lat="38.816960" lon="-5.101257"><ele>461.008</ele><time>1970-01-01T00:00:00Z</time></trkpt><trkpt lat="38.817005" lon="-5.101197"><ele>461.174</ele><time>1970-01-01T00:00:00Z</time></trkpt><trkpt lat="38.817039" lon="-5.101118"><ele>461.611</ele><time>1970-01-01T00:00:00Z</time></trkpt><trkpt lat="38.817067" lon="-5.101020"><ele>462.319</ele><time>1970-01-01T00:00:00Z</time></trkpt><trkpt lat="38.817106" lon="-5.100953"><ele>462.689</ele><time>1970-01-01T00:00:00Z</time></trkpt><trkpt lat="38.817147" lon="-5.100893"><ele>463.385</ele><time>1970-01-01T00:00:00Z</time></trkpt><trkpt lat="38.817179" lon="-5.100856"><ele>463.882</ele><time>1970-01-01T00:00:00Z</time></trkpt><trkpt lat="38.817314" lon="-5.100687"><ele>466.363</ele><time>1970-01-01T00:00:00Z</time></trkpt><trkpt lat="38.817444" lon="-5.100512"><ele>469.225</ele><time>1970-01-01T00:00:00Z</time></trkpt><trkpt lat="38.817598" lon="-5.100342"><ele>470.863</ele><time>1970-01-01T00:00:00Z</time></trkpt><trkpt lat="38.817736" lon="-5.100172"><ele>472.044</ele><time>1970-01-01T00:00:00Z</time></trkpt><trkpt lat="38.817779" lon="-5.100127"><ele>471.918</ele><time>1970-01-01T00:00:00Z</time></trkpt><trkpt lat="38.817838" lon="-5.100075"><ele>471.108</ele><time>1970-01-01T00:00:00Z</time></trkpt><trkpt lat="38.817899" lon="-5.100031"><ele>469.999</ele><time>1970-01-01T00:00:00Z</time></trkpt><trkpt lat="38.817951" lon="-5.099982"><ele>468.716</ele><time>1970-01-01T00:00:00Z</time></trkpt><trkpt lat="38.818004" lon="-5.099944"><ele>467.414</ele><time>1970-01-01T00:00:00Z</time></trkpt><trkpt lat="38.818030" lon="-5.099921"><ele>466.754</ele><time>1970-01-01T00:00:00Z</time></trkpt><trkpt lat="38.818055" lon="-5.099890"><ele>466.280</ele><time>1970-01-01T00:00:00Z</time></trkpt><trkpt lat="38.818080" lon="-5.099840"><ele>465.777</ele><time>1970-01-01T00:00:00Z</time></trkpt><trkpt lat="38.818101" lon="-5.099764"><ele>465.458</ele><time>1970-01-01T00:00:00Z</time></trkpt><trkpt lat="38.818136" lon="-5.099623"><ele>464.940</ele><time>1970-01-01T00:00:00Z</time></trkpt><trkpt lat="38.818192" lon="-5.099214"><ele>465.732</ele><time>1970-01-01T00:00:00Z</time></trkpt><trkpt lat="38.818208" lon="-5.099116"><ele>466.292</ele><time>1970-01-01T00:00:00Z</time></trkpt><trkpt lat="38.818238" lon="-5.098951"><ele>467.111</ele><time>1970-01-01T00:00:00Z</time></trkpt><trkpt lat="38.818273" lon="-5.098829"><ele>466.408</ele><time>1970-01-01T00:00:00Z</time></trkpt><trkpt lat="38.818289" lon="-5.098717"><ele>466.166</ele><time>1970-01-01T00:00:00Z</time></trkpt><trkpt lat="38.818302" lon="-5.098617"><ele>466.453</ele><time>1970-01-01T00:00:00Z</time></trkpt><trkpt lat="38.818315" lon="-5.098532"><ele>467.071</ele><time>1970-01-01T00:00:00Z</time></trkpt><trkpt lat="38.818332" lon="-5.098481"><ele>467.221</ele><time>1970-01-01T00:00:00Z</time></trkpt><trkpt lat="38.818358" lon="-5.098428"><ele>467.267</ele><time>1970-01-01T00:00:00Z</time></trkpt><trkpt lat="38.818388" lon="-5.098385"><ele>467.234</ele><time>1970-01-01T00:00:00Z</time></trkpt><trkpt lat="38.818417" lon="-5.098339"><ele>467.185</ele><time>1970-01-01T00:00:00Z</time></trkpt><trkpt lat="38.818435" lon="-5.098287"><ele>467.157</ele><time>1970-01-01T00:00:00Z</time></trkpt><trkpt lat="38.818443" lon="-5.098205"><ele>467.617</ele><time>1970-01-01T00:00:00Z</time></trkpt><trkpt lat="38.818454" lon="-5.098150"><ele>467.887</ele><time>1970-01-01T00:00:00Z</time></trkpt><trkpt lat="38.818474" lon="-5.098102"><ele>467.615</ele><time>1970-01-01T00:00:00Z</time></trkpt><trkpt lat="38.818507" lon="-5.098058"><ele>467.308</ele><time>1970-01-01T00:00:00Z</time></trkpt><trkpt lat="38.818545" lon="-5.097988"><ele>467.384</ele><time>1970-01-01T00:00:00Z</time></trkpt><trkpt lat="38.818657" lon="-5.097805"><ele>466.861</ele><time>1970-01-01T00:00:00Z</time></trkpt><trkpt lat="38.818724" lon="-5.097678"><ele>465.939</ele><time>1970-01-01T00:00:00Z</time></trkpt><trkpt lat="38.818812" lon="-5.097483"><ele>465.149</ele><time>1970-01-01T00:00:00Z</time></trkpt><trkpt lat="38.818832" lon="-5.097437"><ele>465.025</ele><time>1970-01-01T00:00:00Z</time></trkpt><trkpt lat="38.818863" lon="-5.097353"><ele>464.822</ele><time>1970-01-01T00:00:00Z</time></trkpt><trkpt lat="38.818902" lon="-5.097251"><ele>464.793</ele><time>1970-01-01T00:00:00Z</time></trkpt><trkpt lat="38.818954" lon="-5.097099"><ele>465.015</ele><time>1970-01-01T00:00:00Z</time></trkpt><trkpt lat="38.819031" lon="-5.096918"><ele>464.872</ele><time>1970-01-01T00:00:00Z</time></trkpt><trkpt lat="38.819105" lon="-5.096725"><ele>463.713</ele><time>1970-01-01T00:00:00Z</time></trkpt><trkpt lat="38.819189" lon="-5.096519"><ele>462.314</ele><time>1970-01-01T00:00:00Z</time></trkpt><trkpt lat="38.819263" lon="-5.096366"><ele>460.908</ele><time>1970-01-01T00:00:00Z</time></trkpt><trkpt lat="38.819299" lon="-5.096251"><ele>460.440</ele><time>1970-01-01T00:00:00Z</time></trkpt><trkpt lat="38.819314" lon="-5.096138"><ele>460.367</ele><time>1970-01-01T00:00:00Z</time></trkpt><trkpt lat="38.819345" lon="-5.095917"><ele>460.495</ele><time>1970-01-01T00:00:00Z</time></trkpt><trkpt lat="38.819354" lon="-5.095862"><ele>460.375</ele><time>1970-01-01T00:00:00Z</time></trkpt><trkpt lat="38.819360" lon="-5.095797"><ele>460.411</ele><time>1970-01-01T00:00:00Z</time></trkpt><trkpt lat="38.819372" lon="-5.095744"><ele>460.368</ele><time>1970-01-01T00:00:00Z</time></trkpt><trkpt lat="38.819386" lon="-5.095685"><ele>460.199</ele><time>1970-01-01T00:00:00Z</time></trkpt><trkpt lat="38.819409" lon="-5.095630"><ele>459.721</ele><time>1970-01-01T00:00:00Z</time></trkpt><trkpt lat="38.819421" lon="-5.095548"><ele>459.673</ele><time>1970-01-01T00:00:00Z</time></trkpt><trkpt lat="38.819431" lon="-5.095395"><ele>459.885</ele><time>1970-01-01T00:00:00Z</time></trkpt><trkpt lat="38.819427" lon="-5.095282"><ele>460.413</ele><time>1970-01-01T00:00:00Z</time></trkpt><trkpt lat="38.819417" lon="-5.095062"><ele>460.908</ele><time>1970-01-01T00:00:00Z</time></trkpt><trkpt lat="38.819380" lon="-5.094922"><ele>462.110</ele><time>1970-01-01T00:00:00Z</time></trkpt><trkpt lat="38.819371" lon="-5.094812"><ele>462.497</ele><time>1970-01-01T00:00:00Z</time></trkpt><trkpt lat="38.819364" lon="-5.094708"><ele>462.585</ele><time>1970-01-01T00:00:00Z</time></trkpt><trkpt lat="38.819348" lon="-5.094556"><ele>462.855</ele><time>1970-01-01T00:00:00Z</time></trkpt><trkpt lat="38.819339" lon="-5.094482"><ele>463.091</ele><time>1970-01-01T00:00:00Z</time></trkpt><trkpt lat="38.819319" lon="-5.094394"><ele>463.428</ele><time>1970-01-01T00:00:00Z</time></trkpt><trkpt lat="38.819289" lon="-5.094290"><ele>464.469</ele><time>1970-01-01T00:00:00Z</time></trkpt><trkpt lat="38.819245" lon="-5.094136"><ele>465.811</ele><time>1970-01-01T00:00:00Z</time></trkpt><trkpt lat="38.819190" lon="-5.093967"><ele>467.211</ele><time>1970-01-01T00:00:00Z</time></trkpt><trkpt lat="38.819112" lon="-5.093704"><ele>469.521</ele><time>1970-01-01T00:00:00Z</time></trkpt><trkpt lat="38.819111" lon="-5.093589"><ele>469.603</ele><time>1970-01-01T00:00:00Z</time></trkpt><trkpt lat="38.819104" lon="-5.093483"><ele>470.108</ele><time>1970-01-01T00:00:00Z</time></trkpt><trkpt lat="38.819108" lon="-5.093413"><ele>470.514</ele><time>1970-01-01T00:00:00Z</time></trkpt><trkpt lat="38.819119" lon="-5.093344"><ele>470.741</ele><time>1970-01-01T00:00:00Z</time></trkpt><trkpt lat="38.819143" lon="-5.093248"><ele>470.949</ele><time>1970-01-01T00:00:00Z</time></trkpt><trkpt lat="38.819187" lon="-5.093069"><ele>471.659</ele><time>1970-01-01T00:00:00Z</time></trkpt><trkpt lat="38.819220" lon="-5.092927"><ele>472.355</ele><time>1970-01-01T00:00:00Z</time></trkpt><trkpt lat="38.819228" lon="-5.092811"><ele>473.662</ele><time>1970-01-01T00:00:00Z</time></trkpt><trkpt lat="38.819235" lon="-5.092739"><ele>474.313</ele><time>1970-01-01T00:00:00Z</time></trkpt><trkpt lat="38.819233" lon="-5.092618"><ele>475.585</ele><time>1970-01-01T00:00:00Z</time></trkpt><trkpt lat="38.819201" lon="-5.092556"><ele>476.182</ele><time>1970-01-01T00:00:00Z</time></trkpt><trkpt lat="38.819145" lon="-5.092404"><ele>477.543</ele><time>1970-01-01T00:00:00Z</time></trkpt><trkpt lat="38.819067" lon="-5.092210"><ele>476.717</ele><time>1970-01-01T00:00:00Z</time></trkpt><trkpt lat="38.819003" lon="-5.092048"><ele>475.708</ele><time>1970-01-01T00:00:00Z</time></trkpt><trkpt lat="38.819020" lon="-5.091972"><ele>475.431</ele><time>1970-01-01T00:00:00Z</time></trkpt><trkpt lat="38.819020" lon="-5.091891"><ele>475.578</ele><time>1970-01-01T00:00:00Z</time></trkpt><trkpt lat="38.819004" lon="-5.091826"><ele>475.936</ele><time>1970-01-01T00:00:00Z</time></trkpt><trkpt lat="38.818975" lon="-5.091799"><ele>476.576</ele><time>1970-01-01T00:00:00Z</time></trkpt><trkpt lat="38.818962" lon="-5.091781"><ele>476.752</ele><time>1970-01-01T00:00:00Z</time></trkpt><trkpt lat="38.818972" lon="-5.091754"><ele>477.019</ele><time>1970-01-01T00:00:00Z</time></trkpt><trkpt lat="38.818987" lon="-5.091725"><ele>477.460</ele><time>1970-01-01T00:00:00Z</time></trkpt><trkpt lat="38.818989" lon="-5.091706"><ele>477.782</ele><time>1970-01-01T00:00:00Z</time></trkpt><trkpt lat="38.818989" lon="-5.091689"><ele>478.122</ele><time>1970-01-01T00:00:00Z</time></trkpt><trkpt lat="38.818968" lon="-5.091701"><ele>478.362</ele><time>1970-01-01T00:00:00Z</time></trkpt><trkpt lat="38.818957" lon="-5.091709"><ele>478.308</ele><time>1970-01-01T00:00:00Z</time></trkpt><trkpt lat="38.818942" lon="-5.091717"><ele>478.408</ele><time>1970-01-01T00:00:00Z</time></trkpt><trkpt lat="38.818930" lon="-5.091720"><ele>478.625</ele><time>1970-01-01T00:00:00Z</time></trkpt><trkpt lat="38.818925" lon="-5.091701"><ele>479.182</ele><time>1970-01-01T00:00:00Z</time></trkpt><trkpt lat="38.818941" lon="-5.091678"><ele>479.320</ele><time>1970-01-01T00:00:00Z</time></trkpt><trkpt lat="38.818944" lon="-5.091665"><ele>479.570</ele><time>1970-01-01T00:00:00Z</time></trkpt><trkpt lat="38.818941" lon="-5.091573"><ele>481.636</ele><time>1970-01-01T00:00:00Z</time></trkpt><trkpt lat="38.818946" lon="-5.091518"><ele>482.763</ele><time>1970-01-01T00:00:00Z</time></trkpt><trkpt lat="38.818907" lon="-5.091313"><ele>485.654</ele><time>1970-01-01T00:00:00Z</time></trkpt><trkpt lat="38.818870" lon="-5.091227"><ele>487.376</ele><time>1970-01-01T00:00:00Z</time></trkpt><trkpt lat="38.818835" lon="-5.091092"><ele>488.518</ele><time>1970-01-01T00:00:00Z</time></trkpt><trkpt lat="38.818832" lon="-5.091033"><ele>488.598</ele><time>1970-01-01T00:00:00Z</time></trkpt><trkpt lat="38.818834" lon="-5.090994"><ele>488.417</ele><time>1970-01-01T00:00:00Z</time></trkpt><trkpt lat="38.818839" lon="-5.090959"><ele>488.308</ele><time>1970-01-01T00:00:00Z</time></trkpt><trkpt lat="38.818821" lon="-5.090855"><ele>487.444</ele><time>1970-01-01T00:00:00Z</time></trkpt><trkpt lat="38.818795" lon="-5.090802"><ele>486.931</ele><time>1970-01-01T00:00:00Z</time></trkpt><trkpt lat="38.818748" lon="-5.090722"><ele>486.319</ele><time>1970-01-01T00:00:00Z</time></trkpt><trkpt lat="38.818698" lon="-5.090640"><ele>485.879</ele><time>1970-01-01T00:00:00Z</time></trkpt><trkpt lat="38.818642" lon="-5.090541"><ele>485.415</ele><time>1970-01-01T00:00:00Z</time></trkpt><trkpt lat="38.818618" lon="-5.090497"><ele>485.322</ele><time>1970-01-01T00:00:00Z</time></trkpt><trkpt lat="38.818568" lon="-5.090309"><ele>484.143</ele><time>1970-01-01T00:00:00Z</time></trkpt><trkpt lat="38.818526" lon="-5.090184"><ele>486.355</ele><time>1970-01-01T00:00:00Z</time></trkpt><trkpt lat="38.818502" lon="-5.090110"><ele>487.516</ele><time>1970-01-01T00:00:00Z</time></trkpt><trkpt lat="38.818486" lon="-5.090071"><ele>488.176</ele><time>1970-01-01T00:00:00Z</time></trkpt><trkpt lat="38.818474" lon="-5.090047"><ele>488.613</ele><time>1970-01-01T00:00:00Z</time></trkpt><trkpt lat="38.818447" lon="-5.090043"><ele>489.308</ele><time>1970-01-01T00:00:00Z</time></trkpt><trkpt lat="38.818426" lon="-5.090039"><ele>489.884</ele><time>1970-01-01T00:00:00Z</time></trkpt><trkpt lat="38.818415" lon="-5.090032"><ele>490.171</ele><time>1970-01-01T00:00:00Z</time></trkpt><trkpt lat="38.818415" lon="-5.090021"><ele>490.489</ele><time>1970-01-01T00:00:00Z</time></trkpt><trkpt lat="38.818435" lon="-5.089989"><ele>490.749</ele><time>1970-01-01T00:00:00Z</time></trkpt><trkpt lat="38.818438" lon="-5.089972"><ele>491.085</ele><time>1970-01-01T00:00:00Z</time></trkpt><trkpt lat="38.818427" lon="-5.089965"><ele>491.552</ele><time>1970-01-01T00:00:00Z</time></trkpt><trkpt lat="38.818397" lon="-5.089964"><ele>492.243</ele><time>1970-01-01T00:00:00Z</time></trkpt><trkpt lat="38.818392" lon="-5.089954"><ele>492.685</ele><time>1970-01-01T00:00:00Z</time></trkpt><trkpt lat="38.818392" lon="-5.089929"><ele>493.228</ele><time>1970-01-01T00:00:00Z</time></trkpt><trkpt lat="38.818393" lon="-5.089913"><ele>493.689</ele><time>1970-01-01T00:00:00Z</time></trkpt><trkpt lat="38.818407" lon="-5.089898"><ele>493.617</ele><time>1970-01-01T00:00:00Z</time></trkpt><trkpt lat="38.818418" lon="-5.089894"><ele>493.408</ele><time>1970-01-01T00:00:00Z</time></trkpt><trkpt lat="38.818423" lon="-5.089892"><ele>493.385</ele><time>1970-01-01T00:00:00Z</time></trkpt><trkpt lat="38.818426" lon="-5.089888"><ele>493.312</ele><time>1970-01-01T00:00:00Z</time></trkpt><trkpt lat="38.818425" lon="-5.089882"><ele>493.580</ele><time>1970-01-01T00:00:00Z</time></trkpt><trkpt lat="38.818422" lon="-5.089877"><ele>493.750</ele><time>1970-01-01T00:00:00Z</time></trkpt><trkpt lat="38.818418" lon="-5.089870"><ele>494.096</ele><time>1970-01-01T00:00:00Z</time></trkpt><trkpt lat="38.818412" lon="-5.089860"><ele>494.423</ele><time>1970-01-01T00:00:00Z</time></trkpt><trkpt lat="38.818405" lon="-5.089854"><ele>494.734</ele><time>1970-01-01T00:00:00Z</time></trkpt><trkpt lat="38.818396" lon="-5.089851"><ele>495.096</ele><time>1970-01-01T00:00:00Z</time></trkpt><trkpt lat="38.818385" lon="-5.089847"><ele>495.335</ele><time>1970-01-01T00:00:00Z</time></trkpt><trkpt lat="38.818378" lon="-5.089840"><ele>495.686</ele><time>1970-01-01T00:00:00Z</time></trkpt><trkpt lat="38.818372" lon="-5.089830"><ele>496.014</ele><time>1970-01-01T00:00:00Z</time></trkpt><trkpt lat="38.818371" lon="-5.089822"><ele>496.208</ele><time>1970-01-01T00:00:00Z</time></trkpt><trkpt lat="38.818375" lon="-5.089812"><ele>496.336</ele><time>1970-01-01T00:00:00Z</time></trkpt><trkpt lat="38.818381" lon="-5.089803"><ele>496.413</ele><time>1970-01-01T00:00:00Z</time></trkpt><trkpt lat="38.818386" lon="-5.089793"><ele>496.691</ele><time>1970-01-01T00:00:00Z</time></trkpt><trkpt lat="38.818386" lon="-5.089782"><ele>496.891</ele><time>1970-01-01T00:00:00Z</time></trkpt><trkpt lat="38.818382" lon="-5.089771"><ele>497.237</ele><time>1970-01-01T00:00:00Z</time></trkpt><trkpt lat="38.818319" lon="-5.089650"><ele>497.664</ele><time>1970-01-01T00:00:00Z</time></trkpt><trkpt lat="38.818302" lon="-5.089606"><ele>497.415</ele><time>1970-01-01T00:00:00Z</time></trkpt><trkpt lat="38.818300" lon="-5.089589"><ele>497.327</ele><time>1970-01-01T00:00:00Z</time></trkpt><trkpt lat="38.818296" lon="-5.089575"><ele>497.217</ele><time>1970-01-01T00:00:00Z</time></trkpt><trkpt lat="38.818278" lon="-5.089561"><ele>497.687</ele><time>1970-01-01T00:00:00Z</time></trkpt><trkpt lat="38.818263" lon="-5.089543"><ele>497.815</ele><time>1970-01-01T00:00:00Z</time></trkpt><trkpt lat="38.818249" lon="-5.089520"><ele>498.008</ele><time>1970-01-01T00:00:00Z</time></trkpt><trkpt lat="38.818234" lon="-5.089489"><ele>498.224</ele><time>1970-01-01T00:00:00Z</time></trkpt><trkpt lat="38.818222" lon="-5.089450"><ele>498.371</ele><time>1970-01-01T00:00:00Z</time></trkpt><trkpt lat="38.818212" lon="-5.089420"><ele>498.769</ele><time>1970-01-01T00:00:00Z</time></trkpt><trkpt lat="38.818198" lon="-5.089394"><ele>499.179</ele><time>1970-01-01T00:00:00Z</time></trkpt><trkpt lat="38.818182" lon="-5.089385"><ele>499.755</ele><time>1970-01-01T00:00:00Z</time></trkpt><trkpt lat="38.818160" lon="-5.089369"><ele>500.442</ele><time>1970-01-01T00:00:00Z</time></trkpt><trkpt lat="38.818153" lon="-5.089363"><ele>500.673</ele><time>1970-01-01T00:00:00Z</time></trkpt><trkpt lat="38.818098" lon="-5.089278"><ele>502.565</ele><time>1970-01-01T00:00:00Z</time></trkpt><trkpt lat="38.818058" lon="-5.089154"><ele>504.284</ele><time>1970-01-01T00:00:00Z</time></trkpt><trkpt lat="38.818012" lon="-5.089077"><ele>507.507</ele><time>1970-01-01T00:00:00Z</time></trkpt><trkpt lat="38.817996" lon="-5.089004"><ele>509.317</ele><time>1970-01-01T00:00:00Z</time></trkpt><trkpt lat="38.817999" lon="-5.088916"><ele>510.808</ele><time>1970-01-01T00:00:00Z</time></trkpt><trkpt lat="38.817958" lon="-5.088881"><ele>512.121</ele><time>1970-01-01T00:00:00Z</time></trkpt><trkpt lat="38.817937" lon="-5.088825"><ele>514.268</ele><time>1970-01-01T00:00:00Z</time></trkpt><trkpt lat="38.818031" lon="-5.088747"><ele>515.186</ele><time>1970-01-01T00:00:00Z</time></trkpt><trkpt lat="38.818101" lon="-5.088685"><ele>515.736</ele><time>1970-01-01T00:00:00Z</time></trkpt><trkpt lat="38.818160" lon="-5.088605"><ele>516.682</ele><time>1970-01-01T00:00:00Z</time></trkpt><trkpt lat="38.818195" lon="-5.088511"><ele>516.199</ele><time>1970-01-01T00:00:00Z</time></trkpt><trkpt lat="38.818211" lon="-5.088420"><ele>515.730</ele><time>1970-01-01T00:00:00Z</time></trkpt><trkpt lat="38.818229" lon="-5.088336"><ele>514.972</ele><time>1970-01-01T00:00:00Z</time></trkpt><trkpt lat="38.818195" lon="-5.088256"><ele>514.824</ele><time>1970-01-01T00:00:00Z</time></trkpt><trkpt lat="38.818136" lon="-5.088192"><ele>514.204</ele><time>1970-01-01T00:00:00Z</time></trkpt><trkpt lat="38.818077" lon="-5.088149"><ele>514.514</ele><time>1970-01-01T00:00:00Z</time></trkpt><trkpt lat="38.818015" lon="-5.088103"><ele>514.908</ele><time>1970-01-01T00:00:00Z</time></trkpt><trkpt lat="38.817980" lon="-5.088063"><ele>515.065</ele><time>1970-01-01T00:00:00Z</time></trkpt><trkpt lat="38.817969" lon="-5.088004"><ele>514.242</ele><time>1970-01-01T00:00:00Z</time></trkpt><trkpt lat="38.817969" lon="-5.087913"><ele>514.870</ele><time>1970-01-01T00:00:00Z</time></trkpt><trkpt lat="38.817972" lon="-5.087856"><ele>515.150</ele><time>1970-01-01T00:00:00Z</time></trkpt><trkpt lat="38.818018" lon="-5.087752"><ele>514.096</ele><time>1970-01-01T00:00:00Z</time></trkpt><trkpt lat="38.818066" lon="-5.087607"><ele>513.663</ele><time>1970-01-01T00:00:00Z</time></trkpt><trkpt lat="38.818092" lon="-5.087424"><ele>514.984</ele><time>1970-01-01T00:00:00Z</time></trkpt><trkpt lat="38.818178" lon="-5.087273"><ele>513.886</ele><time>1970-01-01T00:00:00Z</time></trkpt><trkpt lat="38.818258" lon="-5.087188"><ele>512.482</ele><time>1970-01-01T00:00:00Z</time></trkpt><trkpt lat="38.818371" lon="-5.087037"><ele>511.943</ele><time>1970-01-01T00:00:00Z</time></trkpt><trkpt lat="38.818424" lon="-5.086930"><ele>512.417</ele><time>1970-01-01T00:00:00Z</time></trkpt><trkpt lat="38.818520" lon="-5.086703"><ele>514.208</ele><time>1970-01-01T00:00:00Z</time></trkpt><trkpt lat="38.818620" lon="-5.086497"><ele>517.131</ele><time>1970-01-01T00:00:00Z</time></trkpt><trkpt lat="38.818687" lon="-5.086387"><ele>517.948</ele><time>1970-01-01T00:00:00Z</time></trkpt><trkpt lat="38.818730" lon="-5.086307"><ele>518.836</ele><time>1970-01-01T00:00:00Z</time></trkpt><trkpt lat="38.818765" lon="-5.086255"><ele>520.076</ele><time>1970-01-01T00:00:00Z</time></trkpt><trkpt lat="38.818789" lon="-5.086212"><ele>521.012</ele><time>1970-01-01T00:00:00Z</time></trkpt><trkpt lat="38.818824" lon="-5.086175"><ele>521.229</ele><time>1970-01-01T00:00:00Z</time></trkpt><trkpt lat="38.818863" lon="-5.086148"><ele>520.920</ele><time>1970-01-01T00:00:00Z</time></trkpt><trkpt lat="38.818888" lon="-5.086136"><ele>520.452</ele><time>1970-01-01T00:00:00Z</time></trkpt><trkpt lat="38.819019" lon="-5.086081"><ele>520.185</ele><time>1970-01-01T00:00:00Z</time></trkpt><trkpt lat="38.819108" lon="-5.086028"><ele>520.989</ele><time>1970-01-01T00:00:00Z</time></trkpt><trkpt lat="38.819280" lon="-5.085901"><ele>523.317</ele><time>1970-01-01T00:00:00Z</time></trkpt><trkpt lat="38.819314" lon="-5.085862"><ele>524.108</ele><time>1970-01-01T00:00:00Z</time></trkpt><trkpt lat="38.819349" lon="-5.085809"><ele>525.381</ele><time>1970-01-01T00:00:00Z</time></trkpt><trkpt lat="38.819373" lon="-5.085770"><ele>526.158</ele><time>1970-01-01T00:00:00Z</time></trkpt><trkpt lat="38.819427" lon="-5.085736"><ele>527.266</ele><time>1970-01-01T00:00:00Z</time></trkpt><trkpt lat="38.819518" lon="-5.085752"><ele>527.656</ele><time>1970-01-01T00:00:00Z</time></trkpt><trkpt lat="38.819618" lon="-5.085793"><ele>527.172</ele><time>1970-01-01T00:00:00Z</time></trkpt><trkpt lat="38.819682" lon="-5.085833"><ele>526.429</ele><time>1970-01-01T00:00:00Z</time></trkpt><trkpt lat="38.819760" lon="-5.085870"><ele>525.870</ele><time>1970-01-01T00:00:00Z</time></trkpt><trkpt lat="38.819939" lon="-5.085921"><ele>526.222</ele><time>1970-01-01T00:00:00Z</time></trkpt><trkpt lat="38.820076" lon="-5.085956"><ele>526.857</ele><time>1970-01-01T00:00:00Z</time></trkpt><trkpt lat="38.820122" lon="-5.085956"><ele>527.800</ele><time>1970-01-01T00:00:00Z</time></trkpt><trkpt lat="38.820178" lon="-5.085948"><ele>529.320</ele><time>1970-01-01T00:00:00Z</time></trkpt><trkpt lat="38.820226" lon="-5.085929"><ele>531.108</ele><time>1970-01-01T00:00:00Z</time></trkpt><trkpt lat="38.820288" lon="-5.085919"><ele>532.848</ele><time>1970-01-01T00:00:00Z</time></trkpt><trkpt lat="38.820350" lon="-5.085921"><ele>534.245</ele><time>1970-01-01T00:00:00Z</time></trkpt><trkpt lat="38.820377" lon="-5.085892"><ele>536.053</ele><time>1970-01-01T00:00:00Z</time></trkpt><trkpt lat="38.820366" lon="-5.085806"><ele>539.173</ele><time>1970-01-01T00:00:00Z</time></trkpt><trkpt lat="38.820328" lon="-5.085720"><ele>540.889</ele><time>1970-01-01T00:00:00Z</time></trkpt><trkpt lat="38.820285" lon="-5.085669"><ele>541.076</ele><time>1970-01-01T00:00:00Z</time></trkpt><trkpt lat="38.820256" lon="-5.085642"><ele>541.017</ele><time>1970-01-01T00:00:00Z</time></trkpt><trkpt lat="38.820237" lon="-5.085618"><ele>541.199</ele><time>1970-01-01T00:00:00Z</time></trkpt><trkpt lat="38.820216" lon="-5.085586"><ele>541.285</ele><time>1970-01-01T00:00:00Z</time></trkpt><trkpt lat="38.820213" lon="-5.085570"><ele>541.589</ele><time>1970-01-01T00:00:00Z</time></trkpt><trkpt lat="38.820225" lon="-5.085568"><ele>541.917</ele><time>1970-01-01T00:00:00Z</time></trkpt><trkpt lat="38.820241" lon="-5.085567"><ele>542.408</ele><time>1970-01-01T00:00:00Z</time></trkpt><trkpt lat="38.820255" lon="-5.085571"><ele>542.761</ele><time>1970-01-01T00:00:00Z</time></trkpt><trkpt lat="38.820266" lon="-5.085579"><ele>542.988</ele><time>1970-01-01T00:00:00Z</time></trkpt><trkpt lat="38.820357" lon="-5.085667"><ele>543.126</ele><time>1970-01-01T00:00:00Z</time></trkpt><trkpt lat="38.820415" lon="-5.085728"><ele>543.066</ele><time>1970-01-01T00:00:00Z</time></trkpt><trkpt lat="38.820448" lon="-5.085752"><ele>543.292</ele><time>1970-01-01T00:00:00Z</time></trkpt><trkpt lat="38.820497" lon="-5.085748"><ele>544.759</ele><time>1970-01-01T00:00:00Z</time></trkpt><trkpt lat="38.820499" lon="-5.085721"><ele>545.520</ele><time>1970-01-01T00:00:00Z</time></trkpt><trkpt lat="38.820481" lon="-5.085668"><ele>546.562</ele><time>1970-01-01T00:00:00Z</time></trkpt><trkpt lat="38.820451" lon="-5.085641"><ele>546.482</ele><time>1970-01-01T00:00:00Z</time></trkpt><trkpt lat="38.820422" lon="-5.085601"><ele>546.743</ele><time>1970-01-01T00:00:00Z</time></trkpt><trkpt lat="38.820412" lon="-5.085552"><ele>547.817</ele><time>1970-01-01T00:00:00Z</time></trkpt><trkpt lat="38.820414" lon="-5.085530"><ele>548.508</ele><time>1970-01-01T00:00:00Z</time></trkpt><trkpt lat="38.820444" lon="-5.085511"><ele>549.971</ele><time>1970-01-01T00:00:00Z</time></trkpt><trkpt lat="38.820469" lon="-5.085503"><ele>550.828</ele><time>1970-01-01T00:00:00Z</time></trkpt><trkpt lat="38.820497" lon="-5.085522"><ele>551.116</ele><time>1970-01-01T00:00:00Z</time></trkpt><trkpt lat="38.820528" lon="-5.085569"><ele>550.736</ele><time>1970-01-01T00:00:00Z</time></trkpt><trkpt lat="38.820570" lon="-5.085609"><ele>551.062</ele><time>1970-01-01T00:00:00Z</time></trkpt><trkpt lat="38.820613" lon="-5.085648"><ele>551.569</ele><time>1970-01-01T00:00:00Z</time></trkpt><trkpt lat="38.820650" lon="-5.085676"><ele>552.040</ele><time>1970-01-01T00:00:00Z</time></trkpt><trkpt lat="38.820659" lon="-5.085646"><ele>553.142</ele><time>1970-01-01T00:00:00Z</time></trkpt><trkpt lat="38.820664" lon="-5.085619"><ele>553.919</ele><time>1970-01-01T00:00:00Z</time></trkpt><trkpt lat="38.820648" lon="-5.085619"><ele>553.409</ele><time>1970-01-01T00:00:00Z</time></trkpt><trkpt lat="38.820635" lon="-5.085644"><ele>552.319</ele><time>1970-01-01T00:00:00Z</time></trkpt><trkpt lat="38.820600" lon="-5.085605"><ele>552.108</ele><time>1970-01-01T00:00:00Z</time></trkpt><trkpt lat="38.820557" lon="-5.085562"><ele>551.944</ele><time>1970-01-01T00:00:00Z</time></trkpt><trkpt lat="38.820526" lon="-5.085527"><ele>551.981</ele><time>1970-01-01T00:00:00Z</time></trkpt><trkpt lat="38.820481" lon="-5.085493"><ele>551.549</ele><time>1970-01-01T00:00:00Z</time></trkpt><trkpt lat="38.820463" lon="-5.085492"><ele>551.049</ele><time>1970-01-01T00:00:00Z</time></trkpt><trkpt lat="38.820434" lon="-5.085494"><ele>550.135</ele><time>1970-01-01T00:00:00Z</time></trkpt><trkpt lat="38.820418" lon="-5.085509"><ele>549.262</ele><time>1970-01-01T00:00:00Z</time></trkpt><trkpt lat="38.820403" lon="-5.085525"><ele>548.353</ele><time>1970-01-01T00:00:00Z</time></trkpt><trkpt lat="38.820400" lon="-5.085544"><ele>547.795</ele><time>1970-01-01T00:00:00Z</time></trkpt><trkpt lat="38.820404" lon="-5.085579"><ele>546.851</ele><time>1970-01-01T00:00:00Z</time></trkpt><trkpt lat="38.820423" lon="-5.085615"><ele>546.401</ele><time>1970-01-01T00:00:00Z</time></trkpt><trkpt lat="38.820439" lon="-5.085639"><ele>546.211</ele><time>1970-01-01T00:00:00Z</time></trkpt><trkpt lat="38.820465" lon="-5.085664"><ele>546.208</ele><time>1970-01-01T00:00:00Z</time></trkpt><trkpt lat="38.820473" lon="-5.085684"><ele>545.868</ele><time>1970-01-01T00:00:00Z</time></trkpt><trkpt lat="38.820483" lon="-5.085721"><ele>545.135</ele><time>1970-01-01T00:00:00Z</time></trkpt><trkpt lat="38.820465" lon="-5.085736"><ele>544.223</ele><time>1970-01-01T00:00:00Z</time></trkpt><trkpt lat="38.820440" lon="-5.085726"><ele>543.823</ele><time>1970-01-01T00:00:00Z</time></trkpt><trkpt lat="38.820402" lon="-5.085699"><ele>543.559</ele><time>1970-01-01T00:00:00Z</time></trkpt><trkpt lat="38.820375" lon="-5.085660"><ele>543.846</ele><time>1970-01-01T00:00:00Z</time></trkpt><trkpt lat="38.820337" lon="-5.085624"><ele>543.757</ele><time>1970-01-01T00:00:00Z</time></trkpt><trkpt lat="38.820300" lon="-5.085596"><ele>543.459</ele><time>1970-01-01T00:00:00Z</time></trkpt><trkpt lat="38.820265" lon="-5.085556"><ele>543.419</ele><time>1970-01-01T00:00:00Z</time></trkpt><trkpt lat="38.820244" lon="-5.085542"><ele>543.109</ele><time>1970-01-01T00:00:00Z</time></trkpt><trkpt lat="38.820182" lon="-5.085541"><ele>541.119</ele><time>1970-01-01T00:00:00Z</time></trkpt><trkpt lat="38.820136" lon="-5.085548"><ele>539.508</ele><time>1970-01-01T00:00:00Z</time></trkpt><trkpt lat="38.820080" lon="-5.085517"><ele>538.174</ele><time>1970-01-01T00:00:00Z</time></trkpt><trkpt lat="38.820029" lon="-5.085474"><ele>537.611</ele><time>1970-01-01T00:00:00Z</time></trkpt><trkpt lat="38.819987" lon="-5.085443"><ele>536.589</ele><time>1970-01-01T00:00:00Z</time></trkpt><trkpt lat="38.819896" lon="-5.085362"><ele>532.879</ele><time>1970-01-01T00:00:00Z</time></trkpt><trkpt lat="38.819853" lon="-5.085342"><ele>531.355</ele><time>1970-01-01T00:00:00Z</time></trkpt><trkpt lat="38.819831" lon="-5.085306"><ele>529.592</ele><time>1970-01-01T00:00:00Z</time></trkpt><trkpt lat="38.819811" lon="-5.085287"><ele>528.463</ele><time>1970-01-01T00:00:00Z</time></trkpt><trkpt lat="38.819725" lon="-5.085260"><ele>525.515</ele><time>1970-01-01T00:00:00Z</time></trkpt><trkpt lat="38.819611" lon="-5.085222"><ele>521.375</ele><time>1970-01-01T00:00:00Z</time></trkpt><trkpt lat="38.819560" lon="-5.085206"><ele>520.228</ele><time>1970-01-01T00:00:00Z</time></trkpt><trkpt lat="38.819458" lon="-5.085161"><ele>517.720</ele><time>1970-01-01T00:00:00Z</time></trkpt><trkpt lat="38.819367" lon="-5.085104"><ele>515.008</ele><time>1970-01-01T00:00:00Z</time></trkpt><trkpt lat="38.819340" lon="-5.085095"><ele>514.670</ele><time>1970-01-01T00:00:00Z</time></trkpt><trkpt lat="38.819282" lon="-5.085059"><ele>513.247</ele><time>1970-01-01T00:00:00Z</time></trkpt><trkpt lat="38.819257" lon="-5.085034"><ele>512.295</ele><time>1970-01-01T00:00:00Z</time></trkpt><trkpt lat="38.819243" lon="-5.085012"><ele>511.415</ele><time>1970-01-01T00:00:00Z</time></trkpt><trkpt lat="38.819281" lon="-5.084986"><ele>510.371</ele><time>1970-01-01T00:00:00Z</time></trkpt><trkpt lat="38.819316" lon="-5.084959"><ele>509.268</ele><time>1970-01-01T00:00:00Z</time></trkpt><trkpt lat="38.819331" lon="-5.084945"><ele>508.689</ele><time>1970-01-01T00:00:00Z</time></trkpt><trkpt lat="38.819348" lon="-5.084919"><ele>507.551</ele><time>1970-01-01T00:00:00Z</time></trkpt><trkpt lat="38.819377" lon="-5.084883"><ele>506.072</ele><time>1970-01-01T00:00:00Z</time></trkpt><trkpt lat="38.819404" lon="-5.084861"><ele>505.113</ele><time>1970-01-01T00:00:00Z</time></trkpt><trkpt lat="38.819420" lon="-5.084838"><ele>504.314</ele><time>1970-01-01T00:00:00Z</time></trkpt><trkpt lat="38.819432" lon="-5.084821"><ele>503.708</ele><time>1970-01-01T00:00:00Z</time></trkpt><trkpt lat="38.819467" lon="-5.084792"><ele>502.670</ele><time>1970-01-01T00:00:00Z</time></trkpt><trkpt lat="38.819503" lon="-5.084773"><ele>501.997</ele><time>1970-01-01T00:00:00Z</time></trkpt><trkpt lat="38.819525" lon="-5.084763"><ele>501.525</ele><time>1970-01-01T00:00:00Z</time></trkpt><trkpt lat="38.819553" lon="-5.084751"><ele>500.975</ele><time>1970-01-01T00:00:00Z</time></trkpt><trkpt lat="38.819580" lon="-5.084745"><ele>500.771</ele><time>1970-01-01T00:00:00Z</time></trkpt><trkpt lat="38.819590" lon="-5.084721"><ele>499.768</ele><time>1970-01-01T00:00:00Z</time></trkpt><trkpt lat="38.819580" lon="-5.084673"><ele>498.019</ele><time>1970-01-01T00:00:00Z</time></trkpt><trkpt lat="38.819571" lon="-5.084636"><ele>496.791</ele><time>1970-01-01T00:00:00Z</time></trkpt><trkpt lat="38.819568" lon="-5.084619"><ele>496.137</ele><time>1970-01-01T00:00:00Z</time></trkpt><trkpt lat="38.819608" lon="-5.084618"><ele>495.949</ele><time>1970-01-01T00:00:00Z</time></trkpt><trkpt lat="38.819634" lon="-5.084618"><ele>495.813</ele><time>1970-01-01T00:00:00Z</time></trkpt><trkpt lat="38.819662" lon="-5.084620"><ele>495.808</ele><time>1970-01-01T00:00:00Z</time></trkpt><trkpt lat="38.819689" lon="-5.084616"><ele>495.586</ele><time>1970-01-01T00:00:00Z</time></trkpt><trkpt lat="38.819707" lon="-5.084610"><ele>495.363</ele><time>1970-01-01T00:00:00Z</time></trkpt><trkpt lat="38.819754" lon="-5.084586"><ele>494.361</ele><time>1970-01-01T00:00:00Z</time></trkpt><trkpt lat="38.819810" lon="-5.084543"><ele>492.881</ele><time>1970-01-01T00:00:00Z</time></trkpt><trkpt lat="38.819845" lon="-5.084498"><ele>491.327</ele><time>1970-01-01T00:00:00Z</time></trkpt><trkpt lat="38.819873" lon="-5.084450"><ele>489.874</ele><time>1970-01-01T00:00:00Z</time></trkpt><trkpt lat="38.819900" lon="-5.084419"><ele>488.985</ele><time>1970-01-01T00:00:00Z</time></trkpt><trkpt lat="38.819894" lon="-5.084372"><ele>487.477</ele><time>1970-01-01T00:00:00Z</time></trkpt><trkpt lat="38.819860" lon="-5.084326"><ele>485.949</ele><time>1970-01-01T00:00:00Z</time></trkpt><trkpt lat="38.819807" lon="-5.084298"><ele>485.002</ele><time>1970-01-01T00:00:00Z</time></trkpt><trkpt lat="38.819768" lon="-5.084274"><ele>484.222</ele><time>1970-01-01T00:00:00Z</time></trkpt><trkpt lat="38.819740" lon="-5.084260"><ele>483.708</ele><time>1970-01-01T00:00:00Z</time></trkpt><trkpt lat="38.819696" lon="-5.084303"><ele>485.197</ele><time>1970-01-01T00:00:00Z</time></trkpt><trkpt lat="38.819634" lon="-5.084313"><ele>485.464</ele><time>1970-01-01T00:00:00Z</time></trkpt><trkpt lat="38.819577" lon="-5.084326"><ele>486.242</ele><time>1970-01-01T00:00:00Z</time></trkpt><trkpt lat="38.819531" lon="-5.084330"><ele>486.662</ele><time>1970-01-01T00:00:00Z</time></trkpt><trkpt lat="38.819491" lon="-5.084338"><ele>487.118</ele><time>1970-01-01T00:00:00Z</time></trkpt><trkpt lat="38.819432" lon="-5.084350"><ele>487.875</ele><time>1970-01-01T00:00:00Z</time></trkpt><trkpt lat="38.819426" lon="-5.084353"><ele>487.946</ele><time>1970-01-01T00:00:00Z</time></trkpt><trkpt lat="38.819400" lon="-5.084359"><ele>488.318</ele><time>1970-01-01T00:00:00Z</time></trkpt><trkpt lat="38.819390" lon="-5.084358"><ele>488.316</ele><time>1970-01-01T00:00:00Z</time></trkpt><trkpt lat="38.819369" lon="-5.084354"><ele>488.376</ele><time>1970-01-01T00:00:00Z</time></trkpt><trkpt lat="38.819300" lon="-5.084355"><ele>488.813</ele><time>1970-01-01T00:00:00Z</time></trkpt><trkpt lat="38.819211" lon="-5.084353"><ele>489.408</ele><time>1970-01-01T00:00:00Z</time></trkpt><trkpt lat="38.819063" lon="-5.084336"><ele>488.964</ele><time>1970-01-01T00:00:00Z</time></trkpt><trkpt lat="38.819002" lon="-5.084334"><ele>488.821</ele><time>1970-01-01T00:00:00Z</time></trkpt><trkpt lat="38.818996" lon="-5.084318"><ele>488.329</ele><time>1970-01-01T00:00:00Z</time></trkpt><trkpt lat="38.818996" lon="-5.084269"><ele>486.699</ele><time>1970-01-01T00:00:00Z</time></trkpt><trkpt lat="38.818997" lon="-5.084229"><ele>485.395</ele><time>1970-01-01T00:00:00Z</time></trkpt><trkpt lat="38.818992" lon="-5.084211"><ele>484.632</ele><time>1970-01-01T00:00:00Z</time></trkpt><trkpt lat="38.818945" lon="-5.084200"><ele>484.353</ele><time>1970-01-01T00:00:00Z</time></trkpt><trkpt lat="38.818921" lon="-5.084199"><ele>484.395</ele><time>1970-01-01T00:00:00Z</time></trkpt><trkpt lat="38.818890" lon="-5.084190"><ele>484.121</ele><time>1970-01-01T00:00:00Z</time></trkpt><trkpt lat="38.818807" lon="-5.084159"><ele>483.441</ele><time>1970-01-01T00:00:00Z</time></trkpt><trkpt lat="38.818713" lon="-5.084097"><ele>481.905</ele><time>1970-01-01T00:00:00Z</time></trkpt><trkpt lat="38.818520" lon="-5.083942"><ele>479.808</ele><time>1970-01-01T00:00:00Z</time></trkpt><trkpt lat="38.818278" lon="-5.083748"><ele>477.425</ele><time>1970-01-01T00:00:00Z</time></trkpt><trkpt lat="38.818131" lon="-5.083641"><ele>475.872</ele><time>1970-01-01T00:00:00Z</time></trkpt><trkpt lat="38.818045" lon="-5.083594"><ele>475.870</ele><time>1970-01-01T00:00:00Z</time></trkpt><trkpt lat="38.817843" lon="-5.083469"><ele>475.250</ele><time>1970-01-01T00:00:00Z</time></trkpt><trkpt lat="38.817635" lon="-5.083345"><ele>475.996</ele><time>1970-01-01T00:00:00Z</time></trkpt><trkpt lat="38.817517" lon="-5.083281"><ele>476.083</ele><time>1970-01-01T00:00:00Z</time></trkpt><trkpt lat="38.817215" lon="-5.083116"><ele>475.464</ele><time>1970-01-01T00:00:00Z</time></trkpt><trkpt lat="38.817099" lon="-5.083055"><ele>474.976</ele><time>1970-01-01T00:00:00Z</time></trkpt><trkpt lat="38.817022" lon="-5.083017"><ele>474.716</ele><time>1970-01-01T00:00:00Z</time></trkpt><trkpt lat="38.816472" lon="-5.082746"><ele>474.476</ele><time>1970-01-01T00:00:00Z</time></trkpt><trkpt lat="38.815788" lon="-5.082465"><ele>475.713</ele><time>1970-01-01T00:00:00Z</time></trkpt><trkpt lat="38.815431" lon="-5.082301"><ele>473.208</ele><time>1970-01-01T00:00:00Z</time></trkpt><trkpt lat="38.815324" lon="-5.082246"><ele>471.114</ele><time>1970-01-01T00:00:00Z</time></trkpt><trkpt lat="38.815233" lon="-5.082233"><ele>470.481</ele><time>1970-01-01T00:00:00Z</time></trkpt><trkpt lat="38.815145" lon="-5.082235"><ele>470.359</ele><time>1970-01-01T00:00:00Z</time></trkpt><trkpt lat="38.815061" lon="-5.082222"><ele>469.779</ele><time>1970-01-01T00:00:00Z</time></trkpt><trkpt lat="38.814766" lon="-5.082202"><ele>469.055</ele><time>1970-01-01T00:00:00Z</time></trkpt><trkpt lat="38.814626" lon="-5.082202"><ele>469.252</ele><time>1970-01-01T00:00:00Z</time></trkpt><trkpt lat="38.814485" lon="-5.082187"><ele>468.983</ele><time>1970-01-01T00:00:00Z</time></trkpt><trkpt lat="38.814399" lon="-5.082167"><ele>469.045</ele><time>1970-01-01T00:00:00Z</time></trkpt><trkpt lat="38.813875" lon="-5.082013"><ele>466.764</ele><time>1970-01-01T00:00:00Z</time></trkpt><trkpt lat="38.813392" lon="-5.081897"><ele>463.906</ele><time>1970-01-01T00:00:00Z</time></trkpt><trkpt lat="38.813313" lon="-5.081873"><ele>462.516</ele><time>1970-01-01T00:00:00Z</time></trkpt><trkpt lat="38.813238" lon="-5.081874"><ele>461.908</ele><time>1970-01-01T00:00:00Z</time></trkpt><trkpt lat="38.813146" lon="-5.081874"><ele>461.279</ele><time>1970-01-01T00:00:00Z</time></trkpt><trkpt lat="38.812599" lon="-5.081820"><ele>454.956</ele><time>1970-01-01T00:00:00Z</time></trkpt><trkpt lat="38.812492" lon="-5.081808"><ele>453.514</ele><time>1970-01-01T00:00:00Z</time></trkpt><trkpt lat="38.812428" lon="-5.081808"><ele>452.994</ele><time>1970-01-01T00:00:00Z</time></trkpt><trkpt lat="38.812379" lon="-5.081820"><ele>452.870</ele><time>1970-01-01T00:00:00Z</time></trkpt><trkpt lat="38.812287" lon="-5.081862"><ele>453.597</ele><time>1970-01-01T00:00:00Z</time></trkpt><trkpt lat="38.812217" lon="-5.081883"><ele>453.678</ele><time>1970-01-01T00:00:00Z</time></trkpt><trkpt lat="38.811989" lon="-5.081921"><ele>452.430</ele><time>1970-01-01T00:00:00Z</time></trkpt><trkpt lat="38.811926" lon="-5.081921"><ele>451.553</ele><time>1970-01-01T00:00:00Z</time></trkpt><trkpt lat="38.811879" lon="-5.081936"><ele>451.404</ele><time>1970-01-01T00:00:00Z</time></trkpt><trkpt lat="38.811800" lon="-5.081952"><ele>450.714</ele><time>1970-01-01T00:00:00Z</time></trkpt><trkpt lat="38.811646" lon="-5.082028"><ele>450.008</ele><time>1970-01-01T00:00:00Z</time></trkpt><trkpt lat="38.811595" lon="-5.082036"><ele>449.168</ele><time>1970-01-01T00:00:00Z</time></trkpt><trkpt lat="38.811513" lon="-5.082047"><ele>447.425</ele><time>1970-01-01T00:00:00Z</time></trkpt><trkpt lat="38.811462" lon="-5.082055"><ele>446.243</ele><time>1970-01-01T00:00:00Z</time></trkpt><trkpt lat="38.811405" lon="-5.082061"><ele>444.973</ele><time>1970-01-01T00:00:00Z</time></trkpt><trkpt lat="38.811330" lon="-5.082101"><ele>444.319</ele><time>1970-01-01T00:00:00Z</time></trkpt><trkpt lat="38.811253" lon="-5.082153"><ele>444.316</ele><time>1970-01-01T00:00:00Z</time></trkpt><trkpt lat="38.811198" lon="-5.082200"><ele>444.597</ele><time>1970-01-01T00:00:00Z</time></trkpt><trkpt lat="38.811100" lon="-5.082242"><ele>443.229</ele><time>1970-01-01T00:00:00Z</time></trkpt><trkpt lat="38.811051" lon="-5.082264"><ele>442.675</ele><time>1970-01-01T00:00:00Z</time></trkpt><trkpt lat="38.810942" lon="-5.082315"><ele>440.828</ele><time>1970-01-01T00:00:00Z</time></trkpt><trkpt lat="38.810854" lon="-5.082333"><ele>439.420</ele><time>1970-01-01T00:00:00Z</time></trkpt><trkpt lat="38.810792" lon="-5.082348"><ele>439.308</ele><time>1970-01-01T00:00:00Z</time></trkpt><trkpt lat="38.810756" lon="-5.082356"><ele>439.260</ele><time>1970-01-01T00:00:00Z</time></trkpt><trkpt lat="38.810701" lon="-5.082349"><ele>438.557</ele><time>1970-01-01T00:00:00Z</time></trkpt><trkpt lat="38.810673" lon="-5.082337"><ele>438.065</ele><time>1970-01-01T00:00:00Z</time></trkpt><trkpt lat="38.810629" lon="-5.082353"><ele>437.665</ele><time>1970-01-01T00:00:00Z</time></trkpt><trkpt lat="38.810534" lon="-5.082417"><ele>436.871</ele><time>1970-01-01T00:00:00Z</time></trkpt><trkpt lat="38.810462" lon="-5.082474"><ele>436.418</ele><time>1970-01-01T00:00:00Z</time></trkpt><trkpt lat="38.810408" lon="-5.082530"><ele>436.399</ele><time>1970-01-01T00:00:00Z</time></trkpt><trkpt lat="38.810297" lon="-5.082659"><ele>434.811</ele><time>1970-01-01T00:00:00Z</time></trkpt><trkpt lat="38.810110" lon="-5.082857"><ele>431.996</ele><time>1970-01-01T00:00:00Z</time></trkpt><trkpt lat="38.810066" lon="-5.082908"><ele>431.331</ele><time>1970-01-01T00:00:00Z</time></trkpt><trkpt lat="38.810012" lon="-5.083025"><ele>430.824</ele><time>1970-01-01T00:00:00Z</time></trkpt><trkpt lat="38.809986" lon="-5.083162"><ele>431.208</ele><time>1970-01-01T00:00:00Z</time></trkpt><trkpt lat="38.809970" lon="-5.083286"><ele>430.372</ele><time>1970-01-01T00:00:00Z</time></trkpt><trkpt lat="38.809956" lon="-5.083482"><ele>429.369</ele><time>1970-01-01T00:00:00Z</time></trkpt><trkpt lat="38.809936" lon="-5.083651"><ele>428.747</ele><time>1970-01-01T00:00:00Z</time></trkpt><trkpt lat="38.809923" lon="-5.083694"><ele>428.337</ele><time>1970-01-01T00:00:00Z</time></trkpt><trkpt lat="38.809896" lon="-5.083722"><ele>427.683</ele><time>1970-01-01T00:00:00Z</time></trkpt><trkpt lat="38.809848" lon="-5.083796"><ele>426.420</ele><time>1970-01-01T00:00:00Z</time></trkpt><trkpt lat="38.809601" lon="-5.084134"><ele>420.891</ele><time>1970-01-01T00:00:00Z</time></trkpt><trkpt lat="38.809535" lon="-5.084222"><ele>419.423</ele><time>1970-01-01T00:00:00Z</time></trkpt><trkpt lat="38.809490" lon="-5.084271"><ele>418.577</ele><time>1970-01-01T00:00:00Z</time></trkpt><trkpt lat="38.809455" lon="-5.084316"><ele>418.461</ele><time>1970-01-01T00:00:00Z</time></trkpt><trkpt lat="38.809413" lon="-5.084364"><ele>418.327</ele><time>1970-01-01T00:00:00Z</time></trkpt><trkpt lat="38.809275" lon="-5.084472"><ele>417.808</ele><time>1970-01-01T00:00:00Z</time></trkpt><trkpt lat="38.809213" lon="-5.084517"><ele>417.840</ele><time>1970-01-01T00:00:00Z</time></trkpt><trkpt lat="38.809169" lon="-5.084546"><ele>417.817</ele><time>1970-01-01T00:00:00Z</time></trkpt><trkpt lat="38.809148" lon="-5.084552"><ele>417.765</ele><time>1970-01-01T00:00:00Z</time></trkpt><trkpt lat="38.809007" lon="-5.084561"><ele>416.845</ele><time>1970-01-01T00:00:00Z</time></trkpt><trkpt lat="38.808972" lon="-5.084562"><ele>416.621</ele><time>1970-01-01T00:00:00Z</time></trkpt><trkpt lat="38.808917" lon="-5.084555"><ele>416.288</ele><time>1970-01-01T00:00:00Z</time></trkpt><trkpt lat="38.808879" lon="-5.084553"><ele>415.929</ele><time>1970-01-01T00:00:00Z</time></trkpt><trkpt lat="38.808634" lon="-5.084507"><ele>413.651</ele><time>1970-01-01T00:00:00Z</time></trkpt><trkpt lat="38.808557" lon="-5.084499"><ele>412.981</ele><time>1970-01-01T00:00:00Z</time></trkpt><trkpt lat="38.808438" lon="-5.084482"><ele>411.861</ele><time>1970-01-01T00:00:00Z</time></trkpt><trkpt lat="38.808289" lon="-5.084510"><ele>410.717</ele><time>1970-01-01T00:00:00Z</time></trkpt><trkpt lat="38.808129" lon="-5.084561"><ele>409.508</ele><time>1970-01-01T00:00:00Z</time></trkpt><trkpt lat="38.808085" lon="-5.084595"><ele>409.271</ele><time>1970-01-01T00:00:00Z</time></trkpt><trkpt lat="38.808042" lon="-5.084640"><ele>408.928</ele><time>1970-01-01T00:00:00Z</time></trkpt><trkpt lat="38.807994" lon="-5.084718"><ele>408.746</ele><time>1970-01-01T00:00:00Z</time></trkpt><trkpt lat="38.807958" lon="-5.084769"><ele>408.676</ele><time>1970-01-01T00:00:00Z</time></trkpt><trkpt lat="38.807919" lon="-5.084822"><ele>408.552</ele><time>1970-01-01T00:00:00Z</time></trkpt><trkpt lat="38.807859" lon="-5.084870"><ele>408.269</ele><time>1970-01-01T00:00:00Z</time></trkpt><trkpt lat="38.807811" lon="-5.084891"><ele>407.940</ele><time>1970-01-01T00:00:00Z</time></trkpt><trkpt lat="38.807694" lon="-5.084934"><ele>407.122</ele><time>1970-01-01T00:00:00Z</time></trkpt><trkpt lat="38.807565" lon="-5.084940"><ele>405.948</ele><time>1970-01-01T00:00:00Z</time></trkpt><trkpt lat="38.807513" lon="-5.084956"><ele>405.561</ele><time>1970-01-01T00:00:00Z</time></trkpt><trkpt lat="38.807425" lon="-5.085004"><ele>404.917</ele><time>1970-01-01T00:00:00Z</time></trkpt><trkpt lat="38.807375" lon="-5.085054"><ele>404.508</ele><time>1970-01-01T00:00:00Z</time></trkpt><trkpt lat="38.807284" lon="-5.085169"><ele>403.857</ele><time>1970-01-01T00:00:00Z</time></trkpt><trkpt lat="38.807215" lon="-5.085257"><ele>403.214</ele><time>1970-01-01T00:00:00Z</time></trkpt><trkpt lat="38.807139" lon="-5.085422"><ele>402.632</ele><time>1970-01-01T00:00:00Z</time></trkpt><trkpt lat="38.807092" lon="-5.085527"><ele>402.052</ele><time>1970-01-01T00:00:00Z</time></trkpt><trkpt lat="38.807014" lon="-5.085684"><ele>401.038</ele><time>1970-01-01T00:00:00Z</time></trkpt><trkpt lat="38.806945" lon="-5.085760"><ele>400.515</ele><time>1970-01-01T00:00:00Z</time></trkpt><trkpt lat="38.806880" lon="-5.085826"><ele>400.196</ele><time>1970-01-01T00:00:00Z</time></trkpt><trkpt lat="38.806596" lon="-5.086050"><ele>398.058</ele><time>1970-01-01T00:00:00Z</time></trkpt><trkpt lat="38.806495" lon="-5.086128"><ele>397.478</ele><time>1970-01-01T00:00:00Z</time></trkpt><trkpt lat="38.806391" lon="-5.086241"><ele>396.933</ele><time>1970-01-01T00:00:00Z</time></trkpt><trkpt lat="38.806310" lon="-5.086318"><ele>396.426</ele><time>1970-01-01T00:00:00Z</time></trkpt><trkpt lat="38.806236" lon="-5.086404"><ele>396.308</ele><time>1970-01-01T00:00:00Z</time></trkpt><trkpt lat="38.806114" lon="-5.086521"><ele>395.930</ele><time>1970-01-01T00:00:00Z</time></trkpt><trkpt lat="38.806057" lon="-5.086615"><ele>395.817</ele><time>1970-01-01T00:00:00Z</time></trkpt><trkpt lat="38.805865" lon="-5.086875"><ele>395.395</ele><time>1970-01-01T00:00:00Z</time></trkpt><trkpt lat="38.805719" lon="-5.087116"><ele>395.355</ele><time>1970-01-01T00:00:00Z</time></trkpt><trkpt lat="38.805620" lon="-5.087324"><ele>395.621</ele><time>1970-01-01T00:00:00Z</time></trkpt><trkpt lat="38.805570" lon="-5.087447"><ele>395.958</ele><time>1970-01-01T00:00:00Z</time></trkpt><trkpt lat="38.805538" lon="-5.087588"><ele>396.569</ele><time>1970-01-01T00:00:00Z</time></trkpt><trkpt lat="38.805520" lon="-5.087749"><ele>397.181</ele><time>1970-01-01T00:00:00Z</time></trkpt><trkpt lat="38.805550" lon="-5.087954"><ele>398.455</ele><time>1970-01-01T00:00:00Z</time></trkpt><trkpt lat="38.805584" lon="-5.088156"><ele>400.307</ele><time>1970-01-01T00:00:00Z</time></trkpt><trkpt lat="38.805640" lon="-5.088412"><ele>403.017</ele><time>1970-01-01T00:00:00Z</time></trkpt><trkpt lat="38.805667" lon="-5.088516"><ele>404.208</ele><time>1970-01-01T00:00:00Z</time></trkpt><trkpt lat="38.805672" lon="-5.088560"><ele>404.778</ele><time>1970-01-01T00:00:00Z</time></trkpt><trkpt lat="38.805677" lon="-5.088624"><ele>405.335</ele><time>1970-01-01T00:00:00Z</time></trkpt><trkpt lat="38.805672" lon="-5.088674"><ele>405.773</ele><time>1970-01-01T00:00:00Z</time></trkpt><trkpt lat="38.805643" lon="-5.088812"><ele>406.493</ele><time>1970-01-01T00:00:00Z</time></trkpt><trkpt lat="38.805577" lon="-5.089092"><ele>406.919</ele><time>1970-01-01T00:00:00Z</time></trkpt><trkpt lat="38.805504" lon="-5.089338"><ele>407.036</ele><time>1970-01-01T00:00:00Z</time></trkpt><trkpt lat="38.805459" lon="-5.089464"><ele>406.917</ele><time>1970-01-01T00:00:00Z</time></trkpt><trkpt lat="38.805421" lon="-5.089544"><ele>406.689</ele><time>1970-01-01T00:00:00Z</time></trkpt><trkpt lat="38.805317" lon="-5.089883"><ele>406.844</ele><time>1970-01-01T00:00:00Z</time></trkpt><trkpt lat="38.805087" lon="-5.090524"><ele>406.805</ele><time>1970-01-01T00:00:00Z</time></trkpt><trkpt lat="38.805027" lon="-5.090658"><ele>406.915</ele><time>1970-01-01T00:00:00Z</time></trkpt><trkpt lat="38.804987" lon="-5.090755"><ele>407.108</ele><time>1970-01-01T00:00:00Z</time></trkpt><trkpt lat="38.804932" lon="-5.090835"><ele>407.167</ele><time>1970-01-01T00:00:00Z</time></trkpt><trkpt lat="38.804876" lon="-5.090916"><ele>407.254</ele><time>1970-01-01T00:00:00Z</time></trkpt><trkpt lat="38.804810" lon="-5.090999"><ele>407.552</ele><time>1970-01-01T00:00:00Z</time></trkpt><trkpt lat="38.804786" lon="-5.091041"><ele>407.732</ele><time>1970-01-01T00:00:00Z</time></trkpt><trkpt lat="38.804764" lon="-5.091096"><ele>408.188</ele><time>1970-01-01T00:00:00Z</time></trkpt><trkpt lat="38.804743" lon="-5.091210"><ele>409.185</ele><time>1970-01-01T00:00:00Z</time></trkpt><trkpt lat="38.804705" lon="-5.091488"><ele>412.026</ele><time>1970-01-01T00:00:00Z</time></trkpt><trkpt lat="38.804683" lon="-5.091572"><ele>412.928</ele><time>1970-01-01T00:00:00Z</time></trkpt><trkpt lat="38.804681" lon="-5.091592"><ele>413.193</ele><time>1970-01-01T00:00:00Z</time></trkpt><trkpt lat="38.804659" lon="-5.091652"><ele>413.765</ele><time>1970-01-01T00:00:00Z</time></trkpt><trkpt lat="38.804616" lon="-5.091722"><ele>414.421</ele><time>1970-01-01T00:00:00Z</time></trkpt><trkpt lat="38.804578" lon="-5.091781"><ele>414.808</ele><time>1970-01-01T00:00:00Z</time></trkpt><trkpt lat="38.804539" lon="-5.091840"><ele>415.322</ele><time>1970-01-01T00:00:00Z</time></trkpt><trkpt lat="38.804498" lon="-5.091914"><ele>415.939</ele><time>1970-01-01T00:00:00Z</time></trkpt><trkpt lat="38.804472" lon="-5.091966"><ele>416.277</ele><time>1970-01-01T00:00:00Z</time></trkpt><trkpt lat="38.804457" lon="-5.092015"><ele>416.667</ele><time>1970-01-01T00:00:00Z</time></trkpt><trkpt lat="38.804424" lon="-5.092095"><ele>417.283</ele><time>1970-01-01T00:00:00Z</time></trkpt><trkpt lat="38.804362" lon="-5.092218"><ele>417.770</ele><time>1970-01-01T00:00:00Z</time></trkpt><trkpt lat="38.804316" lon="-5.092303"><ele>417.641</ele><time>1970-01-01T00:00:00Z</time></trkpt><trkpt lat="38.804279" lon="-5.092357"><ele>417.463</ele><time>1970-01-01T00:00:00Z</time></trkpt><trkpt lat="38.804221" lon="-5.092409"><ele>416.887</ele><time>1970-01-01T00:00:00Z</time></trkpt><trkpt lat="38.804109" lon="-5.092514"><ele>415.842</ele><time>1970-01-01T00:00:00Z</time></trkpt><trkpt lat="38.804012" lon="-5.092596"><ele>415.026</ele><time>1970-01-01T00:00:00Z</time></trkpt><trkpt lat="38.803939" lon="-5.092648"><ele>414.308</ele><time>1970-01-01T00:00:00Z</time></trkpt><trkpt lat="38.803879" lon="-5.092684"><ele>413.691</ele><time>1970-01-01T00:00:00Z</time></trkpt><trkpt lat="38.803837" lon="-5.092702"><ele>413.038</ele><time>1970-01-01T00:00:00Z</time></trkpt><trkpt lat="38.803778" lon="-5.092738"><ele>412.346</ele><time>1970-01-01T00:00:00Z</time></trkpt><trkpt lat="38.803699" lon="-5.092806"><ele>411.486</ele><time>1970-01-01T00:00:00Z</time></trkpt><trkpt lat="38.803649" lon="-5.092872"><ele>410.972</ele><time>1970-01-01T00:00:00Z</time></trkpt><trkpt lat="38.803576" lon="-5.092992"><ele>410.289</ele><time>1970-01-01T00:00:00Z</time></trkpt><trkpt lat="38.803539" lon="-5.093089"><ele>410.050</ele><time>1970-01-01T00:00:00Z</time></trkpt><trkpt lat="38.803530" lon="-5.093171"><ele>410.152</ele><time>1970-01-01T00:00:00Z</time></trkpt><trkpt lat="38.803529" lon="-5.093431"><ele>410.982</ele><time>1970-01-01T00:00:00Z</time></trkpt><trkpt lat="38.803533" lon="-5.093466"><ele>411.143</ele><time>1970-01-01T00:00:00Z</time></trkpt><trkpt lat="38.803518" lon="-5.093525"><ele>410.917</ele><time>1970-01-01T00:00:00Z</time></trkpt><trkpt lat="38.803464" lon="-5.093670"><ele>410.308</ele><time>1970-01-01T00:00:00Z</time></trkpt><trkpt lat="38.803412" lon="-5.093825"><ele>410.331</ele><time>1970-01-01T00:00:00Z</time></trkpt><trkpt lat="38.803377" lon="-5.093937"><ele>410.378</ele><time>1970-01-01T00:00:00Z</time></trkpt><trkpt lat="38.803327" lon="-5.094065"><ele>410.156</ele><time>1970-01-01T00:00:00Z</time></trkpt><trkpt lat="38.803274" lon="-5.094319"><ele>410.866</ele><time>1970-01-01T00:00:00Z</time></trkpt><trkpt lat="38.803216" lon="-5.094596"><ele>411.532</ele><time>1970-01-01T00:00:00Z</time></trkpt><trkpt lat="38.803175" lon="-5.094789"><ele>412.119</ele><time>1970-01-01T00:00:00Z</time></trkpt><trkpt lat="38.803131" lon="-5.094957"><ele>413.060</ele><time>1970-01-01T00:00:00Z</time></trkpt><trkpt lat="38.803063" lon="-5.095216"><ele>413.842</ele><time>1970-01-01T00:00:00Z</time></trkpt><trkpt lat="38.802989" lon="-5.095456"><ele>414.499</ele><time>1970-01-01T00:00:00Z</time></trkpt><trkpt lat="38.802889" lon="-5.095768"><ele>414.707</ele><time>1970-01-01T00:00:00Z</time></trkpt><trkpt lat="38.802835" lon="-5.095919"><ele>414.427</ele><time>1970-01-01T00:00:00Z</time></trkpt><trkpt lat="38.802784" lon="-5.095996"><ele>414.208</ele><time>1970-01-01T00:00:00Z</time></trkpt><trkpt lat="38.802740" lon="-5.096095"><ele>414.222</ele><time>1970-01-01T00:00:00Z</time></trkpt><trkpt lat="38.802680" lon="-5.096165"><ele>413.519</ele><time>1970-01-01T00:00:00Z</time></trkpt><trkpt lat="38.802607" lon="-5.096310"><ele>412.827</ele><time>1970-01-01T00:00:00Z</time></trkpt><trkpt lat="38.802570" lon="-5.096362"><ele>412.337</ele><time>1970-01-01T00:00:00Z</time></trkpt><trkpt lat="38.802484" lon="-5.096534"><ele>411.763</ele><time>1970-01-01T00:00:00Z</time></trkpt><trkpt lat="38.802428" lon="-5.096593"><ele>411.130</ele><time>1970-01-01T00:00:00Z</time></trkpt><trkpt lat="38.802387" lon="-5.096632"><ele>410.831</ele><time>1970-01-01T00:00:00Z</time></trkpt><trkpt lat="38.802343" lon="-5.096689"><ele>410.543</ele><time>1970-01-01T00:00:00Z</time></trkpt><trkpt lat="38.802319" lon="-5.096734"><ele>410.415</ele><time>1970-01-01T00:00:00Z</time></trkpt><trkpt lat="38.802300" lon="-5.096797"><ele>410.665</ele><time>1970-01-01T00:00:00Z</time></trkpt><trkpt lat="38.802293" lon="-5.096875"><ele>411.211</ele><time>1970-01-01T00:00:00Z</time></trkpt><trkpt lat="38.802312" lon="-5.097036"><ele>413.108</ele><time>1970-01-01T00:00:00Z</time></trkpt><trkpt lat="38.802341" lon="-5.097140"><ele>414.514</ele><time>1970-01-01T00:00:00Z</time></trkpt><trkpt lat="38.802370" lon="-5.097263"><ele>416.011</ele><time>1970-01-01T00:00:00Z</time></trkpt><trkpt lat="38.802374" lon="-5.097303"><ele>416.469</ele><time>1970-01-01T00:00:00Z</time></trkpt><trkpt lat="38.802378" lon="-5.097385"><ele>417.339</ele><time>1970-01-01T00:00:00Z</time></trkpt><trkpt lat="38.802375" lon="-5.097508"><ele>418.755</ele><time>1970-01-01T00:00:00Z</time></trkpt><trkpt lat="38.802371" lon="-5.097565"><ele>419.392</ele><time>1970-01-01T00:00:00Z</time></trkpt><trkpt lat="38.802355" lon="-5.097614"><ele>419.713</ele><time>1970-01-01T00:00:00Z</time></trkpt><trkpt lat="38.802331" lon="-5.097663"><ele>419.965</ele><time>1970-01-01T00:00:00Z</time></trkpt><trkpt lat="38.802309" lon="-5.097700"><ele>420.157</ele><time>1970-01-01T00:00:00Z</time></trkpt><trkpt lat="38.802270" lon="-5.097732"><ele>419.900</ele><time>1970-01-01T00:00:00Z</time></trkpt><trkpt lat="38.802230" lon="-5.097758"><ele>419.920</ele><time>1970-01-01T00:00:00Z</time></trkpt><trkpt lat="38.802174" lon="-5.097772"><ele>419.608</ele><time>1970-01-01T00:00:00Z</time></trkpt><trkpt lat="38.802114" lon="-5.097784"><ele>419.338</ele><time>1970-01-01T00:00:00Z</time></trkpt><trkpt lat="38.802051" lon="-5.097793"><ele>418.925</ele><time>1970-01-01T00:00:00Z</time></trkpt><trkpt lat="38.801992" lon="-5.097796"><ele>418.583</ele><time>1970-01-01T00:00:00Z</time></trkpt><trkpt lat="38.801924" lon="-5.097796"><ele>418.023</ele><time>1970-01-01T00:00:00Z</time></trkpt><trkpt lat="38.801875" lon="-5.097793"><ele>417.769</ele><time>1970-01-01T00:00:00Z</time></trkpt><trkpt lat="38.801837" lon="-5.097794"><ele>417.496</ele><time>1970-01-01T00:00:00Z</time></trkpt><trkpt lat="38.801684" lon="-5.097789"><ele>416.247</ele><time>1970-01-01T00:00:00Z</time></trkpt><trkpt lat="38.801557" lon="-5.097788"><ele>415.369</ele><time>1970-01-01T00:00:00Z</time></trkpt><trkpt lat="38.801283" lon="-5.097751"><ele>412.411</ele><time>1970-01-01T00:00:00Z</time></trkpt><trkpt lat="38.801151" lon="-5.097757"><ele>411.121</ele><time>1970-01-01T00:00:00Z</time></trkpt><trkpt lat="38.801094" lon="-5.097784"><ele>410.903</ele><time>1970-01-01T00:00:00Z</time></trkpt><trkpt lat="38.801038" lon="-5.097820"><ele>410.908</ele><time>1970-01-01T00:00:00Z</time></trkpt><trkpt lat="38.800941" lon="-5.097865"><ele>410.724</ele><time>1970-01-01T00:00:00Z</time></trkpt><trkpt lat="38.800650" lon="-5.097985"><ele>410.921</ele><time>1970-01-01T00:00:00Z</time></trkpt><trkpt lat="38.800513" lon="-5.098018"><ele>410.439</ele><time>1970-01-01T00:00:00Z</time></trkpt><trkpt lat="38.800458" lon="-5.098036"><ele>410.319</ele><time>1970-01-01T00:00:00Z</time></trkpt><trkpt lat="38.800054" lon="-5.098145"><ele>408.575</ele><time>1970-01-01T00:00:00Z</time></trkpt><trkpt lat="38.799940" lon="-5.098181"><ele>408.392</ele><time>1970-01-01T00:00:00Z</time></trkpt><trkpt lat="38.799851" lon="-5.098192"><ele>407.973</ele><time>1970-01-01T00:00:00Z</time></trkpt><trkpt lat="38.799746" lon="-5.098212"><ele>407.695</ele><time>1970-01-01T00:00:00Z</time></trkpt><trkpt lat="38.799663" lon="-5.098234"><ele>407.947</ele><time>1970-01-01T00:00:00Z</time></trkpt><trkpt lat="38.799451" lon="-5.098299"><ele>408.929</ele><time>1970-01-01T00:00:00Z</time></trkpt><trkpt lat="38.799368" lon="-5.098330"><ele>409.521</ele><time>1970-01-01T00:00:00Z</time></trkpt><trkpt lat="38.799315" lon="-5.098336"><ele>409.708</ele><time>1970-01-01T00:00:00Z</time></trkpt><trkpt lat="38.799222" lon="-5.098347"><ele>410.717</ele><time>1970-01-01T00:00:00Z</time></trkpt><trkpt lat="38.799153" lon="-5.098357"><ele>411.514</ele><time>1970-01-01T00:00:00Z</time></trkpt><trkpt lat="38.799125" lon="-5.098363"><ele>411.892</ele><time>1970-01-01T00:00:00Z</time></trkpt><trkpt lat="38.799081" lon="-5.098381"><ele>412.582</ele><time>1970-01-01T00:00:00Z</time></trkpt><trkpt lat="38.799017" lon="-5.098433"><ele>413.728</ele><time>1970-01-01T00:00:00Z</time></trkpt><trkpt lat="38.798957" lon="-5.098494"><ele>415.175</ele><time>1970-01-01T00:00:00Z</time></trkpt><trkpt lat="38.798903" lon="-5.098552"><ele>416.566</ele><time>1970-01-01T00:00:00Z</time></trkpt><trkpt lat="38.798855" lon="-5.098599"><ele>417.538</ele><time>1970-01-01T00:00:00Z</time></trkpt><trkpt lat="38.798808" lon="-5.098650"><ele>418.394</ele><time>1970-01-01T00:00:00Z</time></trkpt><trkpt lat="38.798756" lon="-5.098707"><ele>419.357</ele><time>1970-01-01T00:00:00Z</time></trkpt><trkpt lat="38.798733" lon="-5.098755"><ele>420.222</ele><time>1970-01-01T00:00:00Z</time></trkpt><trkpt lat="38.798713" lon="-5.098783"><ele>420.708</ele><time>1970-01-01T00:00:00Z</time></trkpt><trkpt lat="38.798692" lon="-5.098815"><ele>421.232</ele><time>1970-01-01T00:00:00Z</time></trkpt><trkpt lat="38.798631" lon="-5.098886"><ele>422.289</ele><time>1970-01-01T00:00:00Z</time></trkpt><trkpt lat="38.798609" lon="-5.098915"><ele>422.517</ele><time>1970-01-01T00:00:00Z</time></trkpt><trkpt lat="38.798567" lon="-5.098949"><ele>422.517</ele><time>1970-01-01T00:00:00Z</time></trkpt><trkpt lat="38.798503" lon="-5.099010"><ele>423.023</ele><time>1970-01-01T00:00:00Z</time></trkpt><trkpt lat="38.798450" lon="-5.099055"><ele>423.270</ele><time>1970-01-01T00:00:00Z</time></trkpt><trkpt lat="38.798413" lon="-5.099091"><ele>423.671</ele><time>1970-01-01T00:00:00Z</time></trkpt><trkpt lat="38.798371" lon="-5.099117"><ele>423.533</ele><time>1970-01-01T00:00:00Z</time></trkpt><trkpt lat="38.798299" lon="-5.099186"><ele>423.914</ele><time>1970-01-01T00:00:00Z</time></trkpt><trkpt lat="38.798199" lon="-5.099267"><ele>424.454</ele><time>1970-01-01T00:00:00Z</time></trkpt><trkpt lat="38.798150" lon="-5.099305"><ele>424.909</ele><time>1970-01-01T00:00:00Z</time></trkpt><trkpt lat="38.798098" lon="-5.099345"><ele>425.508</ele><time>1970-01-01T00:00:00Z</time></trkpt><trkpt lat="38.798070" lon="-5.099367"><ele>425.854</ele><time>1970-01-01T00:00:00Z</time></trkpt><trkpt lat="38.798018" lon="-5.099410"><ele>426.471</ele><time>1970-01-01T00:00:00Z</time></trkpt><trkpt lat="38.797955" lon="-5.099444"><ele>426.749</ele><time>1970-01-01T00:00:00Z</time></trkpt><trkpt lat="38.797903" lon="-5.099477"><ele>427.019</ele><time>1970-01-01T00:00:00Z</time></trkpt><trkpt lat="38.797864" lon="-5.099497"><ele>427.185</ele><time>1970-01-01T00:00:00Z</time></trkpt><trkpt lat="38.797829" lon="-5.099515"><ele>427.132</ele><time>1970-01-01T00:00:00Z</time></trkpt><trkpt lat="38.797694" lon="-5.099617"><ele>427.383</ele><time>1970-01-01T00:00:00Z</time></trkpt><trkpt lat="38.797609" lon="-5.099665"><ele>427.365</ele><time>1970-01-01T00:00:00Z</time></trkpt><trkpt lat="38.797480" lon="-5.099724"><ele>427.156</ele><time>1970-01-01T00:00:00Z</time></trkpt><trkpt lat="38.797383" lon="-5.099780"><ele>426.959</ele><time>1970-01-01T00:00:00Z</time></trkpt><trkpt lat="38.797307" lon="-5.099834"><ele>427.214</ele><time>1970-01-01T00:00:00Z</time></trkpt><trkpt lat="38.797220" lon="-5.099898"><ele>427.308</ele><time>1970-01-01T00:00:00Z</time></trkpt><trkpt lat="38.797152" lon="-5.099966"><ele>427.728</ele><time>1970-01-01T00:00:00Z</time></trkpt><trkpt lat="38.797046" lon="-5.100069"><ele>428.525</ele><time>1970-01-01T00:00:00Z</time></trkpt><trkpt lat="38.796901" lon="-5.100216"><ele>429.143</ele><time>1970-01-01T00:00:00Z</time></trkpt><trkpt lat="38.796780" lon="-5.100387"><ele>430.793</ele><time>1970-01-01T00:00:00Z</time></trkpt><trkpt lat="38.796568" lon="-5.100655"><ele>432.299</ele><time>1970-01-01T00:00:00Z</time></trkpt><trkpt lat="38.796389" lon="-5.100964"><ele>434.666</ele><time>1970-01-01T00:00:00Z</time></trkpt><trkpt lat="38.796277" lon="-5.101165"><ele>437.047</ele><time>1970-01-01T00:00:00Z</time></trkpt><trkpt lat="38.796233" lon="-5.101245"><ele>437.859</ele><time>1970-01-01T00:00:00Z</time></trkpt><trkpt lat="38.795978" lon="-5.102023"><ele>441.636</ele><time>1970-01-01T00:00:00Z</time></trkpt><trkpt lat="38.795889" lon="-5.102239"><ele>440.117</ele><time>1970-01-01T00:00:00Z</time></trkpt><trkpt lat="38.795830" lon="-5.102387"><ele>439.818</ele><time>1970-01-01T00:00:00Z</time></trkpt><trkpt lat="38.795788" lon="-5.102471"><ele>439.608</ele><time>1970-01-01T00:00:00Z</time></trkpt><trkpt lat="38.795740" lon="-5.102564"><ele>439.546</ele><time>1970-01-01T00:00:00Z</time></trkpt><trkpt lat="38.795698" lon="-5.102654"><ele>439.733</ele><time>1970-01-01T00:00:00Z</time></trkpt><trkpt lat="38.795680" lon="-5.102683"><ele>439.891</ele><time>1970-01-01T00:00:00Z</time></trkpt><trkpt lat="38.795611" lon="-5.102667"><ele>438.931</ele><time>1970-01-01T00:00:00Z</time></trkpt><trkpt lat="38.795580" lon="-5.102654"><ele>438.747</ele><time>1970-01-01T00:00:00Z</time></trkpt><trkpt lat="38.795464" lon="-5.102627"><ele>438.354</ele><time>1970-01-01T00:00:00Z</time></trkpt><trkpt lat="38.795410" lon="-5.102591"><ele>437.445</ele><time>1970-01-01T00:00:00Z</time></trkpt><trkpt lat="38.795308" lon="-5.102557"><ele>436.317</ele><time>1970-01-01T00:00:00Z</time></trkpt><trkpt lat="38.795213" lon="-5.102555"><ele>436.065</ele><time>1970-01-01T00:00:00Z</time></trkpt><trkpt lat="38.795126" lon="-5.102556"><ele>435.168</ele><time>1970-01-01T00:00:00Z</time></trkpt><trkpt lat="38.794951" lon="-5.102628"><ele>434.614</ele><time>1970-01-01T00:00:00Z</time></trkpt><trkpt lat="38.794820" lon="-5.102714"><ele>434.308</ele><time>1970-01-01T00:00:00Z</time></trkpt><trkpt lat="38.794771" lon="-5.102769"><ele>434.639</ele><time>1970-01-01T00:00:00Z</time></trkpt><trkpt lat="38.794597" lon="-5.103077"><ele>437.836</ele><time>1970-01-01T00:00:00Z</time></trkpt><trkpt lat="38.794486" lon="-5.103310"><ele>440.714</ele><time>1970-01-01T00:00:00Z</time></trkpt><trkpt lat="38.794384" lon="-5.103509"><ele>443.314</ele><time>1970-01-01T00:00:00Z</time></trkpt><trkpt lat="38.794219" lon="-5.103836"><ele>448.210</ele><time>1970-01-01T00:00:00Z</time></trkpt><trkpt lat="38.794125" lon="-5.104053"><ele>452.177</ele><time>1970-01-01T00:00:00Z</time></trkpt><trkpt lat="38.794048" lon="-5.104192"><ele>454.078</ele><time>1970-01-01T00:00:00Z</time></trkpt><trkpt lat="38.793896" lon="-5.104435"><ele>457.650</ele><time>1970-01-01T00:00:00Z</time></trkpt><trkpt lat="38.793783" lon="-5.104583"><ele>459.638</ele><time>1970-01-01T00:00:00Z</time></trkpt><trkpt lat="38.793747" lon="-5.104668"><ele>461.570</ele><time>1970-01-01T00:00:00Z</time></trkpt><trkpt lat="38.793702" lon="-5.104766"><ele>463.517</ele><time>1970-01-01T00:00:00Z</time></trkpt><trkpt lat="38.793669" lon="-5.104835"><ele>464.808</ele><time>1970-01-01T00:00:00Z</time></trkpt><trkpt lat="38.793629" lon="-5.104904"><ele>466.016</ele><time>1970-01-01T00:00:00Z</time></trkpt><trkpt lat="38.793543" lon="-5.105008"><ele>467.553</ele><time>1970-01-01T00:00:00Z</time></trkpt><trkpt lat="38.793484" lon="-5.105090"><ele>469.031</ele><time>1970-01-01T00:00:00Z</time></trkpt><trkpt lat="38.793431" lon="-5.105178"><ele>470.791</ele><time>1970-01-01T00:00:00Z</time></trkpt><trkpt lat="38.793321" lon="-5.105352"><ele>473.967</ele><time>1970-01-01T00:00:00Z</time></trkpt><trkpt lat="38.793200" lon="-5.105538"><ele>477.474</ele><time>1970-01-01T00:00:00Z</time></trkpt><trkpt lat="38.793119" lon="-5.105676"><ele>480.185</ele><time>1970-01-01T00:00:00Z</time></trkpt><trkpt lat="38.793092" lon="-5.105751"><ele>481.147</ele><time>1970-01-01T00:00:00Z</time></trkpt><trkpt lat="38.793068" lon="-5.105866"><ele>482.264</ele><time>1970-01-01T00:00:00Z</time></trkpt><trkpt lat="38.793088" lon="-5.105950"><ele>482.906</ele><time>1970-01-01T00:00:00Z</time></trkpt><trkpt lat="38.793117" lon="-5.106035"><ele>482.116</ele><time>1970-01-01T00:00:00Z</time></trkpt><trkpt lat="38.793154" lon="-5.106147"><ele>480.008</ele><time>1970-01-01T00:00:00Z</time></trkpt><trkpt lat="38.793204" lon="-5.106317"><ele>476.559</ele><time>1970-01-01T00:00:00Z</time></trkpt><trkpt lat="38.793229" lon="-5.106400"><ele>474.186</ele><time>1970-01-01T00:00:00Z</time></trkpt><trkpt lat="38.793268" lon="-5.106441"><ele>473.364</ele><time>1970-01-01T00:00:00Z</time></trkpt><trkpt lat="38.793317" lon="-5.106485"><ele>472.524</ele><time>1970-01-01T00:00:00Z</time></trkpt><trkpt lat="38.793365" lon="-5.106504"><ele>472.640</ele><time>1970-01-01T00:00:00Z</time></trkpt><trkpt lat="38.793551" lon="-5.106614"><ele>471.997</ele><time>1970-01-01T00:00:00Z</time></trkpt><trkpt lat="38.793636" lon="-5.106681"><ele>471.688</ele><time>1970-01-01T00:00:00Z</time></trkpt><trkpt lat="38.793703" lon="-5.106726"><ele>471.490</ele><time>1970-01-01T00:00:00Z</time></trkpt><trkpt lat="38.793872" lon="-5.106961"><ele>467.748</ele><time>1970-01-01T00:00:00Z</time></trkpt><trkpt lat="38.793973" lon="-5.107092"><ele>465.661</ele><time>1970-01-01T00:00:00Z</time></trkpt><trkpt lat="38.794154" lon="-5.107332"><ele>461.517</ele><time>1970-01-01T00:00:00Z</time></trkpt><trkpt lat="38.794221" lon="-5.107461"><ele>458.508</ele><time>1970-01-01T00:00:00Z</time></trkpt><trkpt lat="38.794252" lon="-5.107517"><ele>457.747</ele><time>1970-01-01T00:00:00Z</time></trkpt><trkpt lat="38.794313" lon="-5.107572"><ele>457.964</ele><time>1970-01-01T00:00:00Z</time></trkpt><trkpt lat="38.794432" lon="-5.107717"><ele>457.132</ele><time>1970-01-01T00:00:00Z</time></trkpt><trkpt lat="38.794564" lon="-5.107870"><ele>455.872</ele><time>1970-01-01T00:00:00Z</time></trkpt><trkpt lat="38.794596" lon="-5.107898"><ele>455.778</ele><time>1970-01-01T00:00:00Z</time></trkpt><trkpt lat="38.794629" lon="-5.107962"><ele>454.425</ele><time>1970-01-01T00:00:00Z</time></trkpt><trkpt lat="38.794664" lon="-5.108047"><ele>452.466</ele><time>1970-01-01T00:00:00Z</time></trkpt><trkpt lat="38.794750" lon="-5.108248"><ele>450.298</ele><time>1970-01-01T00:00:00Z</time></trkpt><trkpt lat="38.794828" lon="-5.108398"><ele>448.262</ele><time>1970-01-01T00:00:00Z</time></trkpt><trkpt lat="38.794896" lon="-5.108482"><ele>447.783</ele><time>1970-01-01T00:00:00Z</time></trkpt><trkpt lat="38.794935" lon="-5.108548"><ele>447.311</ele><time>1970-01-01T00:00:00Z</time></trkpt><trkpt lat="38.794971" lon="-5.108612"><ele>446.608</ele><time>1970-01-01T00:00:00Z</time></trkpt><trkpt lat="38.794994" lon="-5.108704"><ele>445.319</ele><time>1970-01-01T00:00:00Z</time></trkpt><trkpt lat="38.794990" lon="-5.108761"><ele>444.026</ele><time>1970-01-01T00:00:00Z</time></trkpt><trkpt lat="38.794975" lon="-5.108861"><ele>441.654</ele><time>1970-01-01T00:00:00Z</time></trkpt><trkpt lat="38.794977" lon="-5.108940"><ele>440.064</ele><time>1970-01-01T00:00:00Z</time></trkpt><trkpt lat="38.795125" lon="-5.109179"><ele>437.040</ele><time>1970-01-01T00:00:00Z</time></trkpt><trkpt lat="38.795166" lon="-5.109247"><ele>436.497</ele><time>1970-01-01T00:00:00Z</time></trkpt><trkpt lat="38.795214" lon="-5.109333"><ele>435.958</ele><time>1970-01-01T00:00:00Z</time></trkpt><trkpt lat="38.795255" lon="-5.109502"><ele>433.860</ele><time>1970-01-01T00:00:00Z</time></trkpt><trkpt lat="38.795312" lon="-5.109642"><ele>432.413</ele><time>1970-01-01T00:00:00Z</time></trkpt><trkpt lat="38.795351" lon="-5.109760"><ele>431.143</ele><time>1970-01-01T00:00:00Z</time></trkpt><trkpt lat="38.795446" lon="-5.109925"><ele>430.007</ele><time>1970-01-01T00:00:00Z</time></trkpt><trkpt lat="38.795579" lon="-5.110087"><ele>429.308</ele><time>1970-01-01T00:00:00Z</time></trkpt><trkpt lat="38.795815" lon="-5.110358"><ele>427.584</ele><time>1970-01-01T00:00:00Z</time></trkpt><trkpt lat="38.796157" lon="-5.110743"><ele>425.061</ele><time>1970-01-01T00:00:00Z</time></trkpt><trkpt lat="38.796346" lon="-5.110912"><ele>423.699</ele><time>1970-01-01T00:00:00Z</time></trkpt><trkpt lat="38.796403" lon="-5.110950"><ele>423.479</ele><time>1970-01-01T00:00:00Z</time></trkpt><trkpt lat="38.796511" lon="-5.111073"><ele>422.285</ele><time>1970-01-01T00:00:00Z</time></trkpt><trkpt lat="38.796664" lon="-5.111193"><ele>421.532</ele><time>1970-01-01T00:00:00Z</time></trkpt><trkpt lat="38.796886" lon="-5.111316"><ele>422.083</ele><time>1970-01-01T00:00:00Z</time></trkpt><trkpt lat="38.797230" lon="-5.111469"><ele>421.415</ele><time>1970-01-01T00:00:00Z</time></trkpt><trkpt lat="38.797256" lon="-5.111493"><ele>421.249</ele><time>1970-01-01T00:00:00Z</time></trkpt><trkpt lat="38.797275" lon="-5.111527"><ele>420.802</ele><time>1970-01-01T00:00:00Z</time></trkpt><trkpt lat="38.797303" lon="-5.111556"><ele>420.622</ele><time>1970-01-01T00:00:00Z</time></trkpt><trkpt lat="38.797344" lon="-5.111579"><ele>420.508</ele><time>1970-01-01T00:00:00Z</time></trkpt><trkpt lat="38.797943" lon="-5.111777"><ele>423.667</ele><time>1970-01-01T00:00:00Z</time></trkpt><trkpt lat="38.798169" lon="-5.111854"><ele>424.914</ele><time>1970-01-01T00:00:00Z</time></trkpt><trkpt lat="38.798735" lon="-5.112032"><ele>428.742</ele><time>1970-01-01T00:00:00Z</time></trkpt><trkpt lat="38.798903" lon="-5.112091"><ele>429.632</ele><time>1970-01-01T00:00:00Z</time></trkpt><trkpt lat="38.799614" lon="-5.112323"><ele>433.778</ele><time>1970-01-01T00:00:00Z</time></trkpt><trkpt lat="38.799830" lon="-5.112391"><ele>435.215</ele><time>1970-01-01T00:00:00Z</time></trkpt><trkpt lat="38.800047" lon="-5.112431"><ele>436.686</ele><time>1970-01-01T00:00:00Z</time></trkpt><trkpt lat="38.800171" lon="-5.112431"><ele>437.648</ele><time>1970-01-01T00:00:00Z</time></trkpt><trkpt lat="38.801542" lon="-5.112310"><ele>444.756</ele><time>1970-01-01T00:00:00Z</time></trkpt><trkpt lat="38.803207" lon="-5.112130"><ele>450.459</ele><time>1970-01-01T00:00:00Z</time></trkpt><trkpt lat="38.804500" lon="-5.111934"><ele>451.314</ele><time>1970-01-01T00:00:00Z</time></trkpt><trkpt lat="38.804964" lon="-5.111835"><ele>453.008</ele><time>1970-01-01T00:00:00Z</time></trkpt><trkpt lat="38.805151" lon="-5.111762"><ele>453.548</ele><time>1970-01-01T00:00:00Z</time></trkpt><trkpt lat="38.806376" lon="-5.111334"><ele>459.655</ele><time>1970-01-01T00:00:00Z</time></trkpt><trkpt lat="38.806990" lon="-5.111152"><ele>464.043</ele><time>1970-01-01T00:00:00Z</time></trkpt><trkpt lat="38.807460" lon="-5.110975"><ele>466.793</ele><time>1970-01-01T00:00:00Z</time></trkpt><trkpt lat="38.807929" lon="-5.110814"><ele>468.979</ele><time>1970-01-01T00:00:00Z</time></trkpt><trkpt lat="38.807996" lon="-5.110780"><ele>468.986</ele><time>1970-01-01T00:00:00Z</time></trkpt><trkpt lat="38.808053" lon="-5.110734"><ele>468.857</ele><time>1970-01-01T00:00:00Z</time></trkpt><trkpt lat="38.808101" lon="-5.110707"><ele>468.899</ele><time>1970-01-01T00:00:00Z</time></trkpt><trkpt lat="38.808173" lon="-5.110672"><ele>468.663</ele><time>1970-01-01T00:00:00Z</time></trkpt><trkpt lat="38.808611" lon="-5.110525"><ele>465.944</ele><time>1970-01-01T00:00:00Z</time></trkpt><trkpt lat="38.808656" lon="-5.110505"><ele>465.518</ele><time>1970-01-01T00:00:00Z</time></trkpt><trkpt lat="38.808685" lon="-5.110484"><ele>465.208</ele><time>1970-01-01T00:00:00Z</time></trkpt><trkpt lat="38.808715" lon="-5.110449"><ele>465.039</ele><time>1970-01-01T00:00:00Z</time></trkpt><trkpt lat="38.808820" lon="-5.110430"><ele>464.246</ele><time>1970-01-01T00:00:00Z</time></trkpt><trkpt lat="38.808916" lon="-5.110411"><ele>463.474</ele><time>1970-01-01T00:00:00Z</time></trkpt><trkpt lat="38.809077" lon="-5.110376"><ele>461.934</ele><time>1970-01-01T00:00:00Z</time></trkpt><trkpt lat="38.809174" lon="-5.110406"><ele>460.990</ele><time>1970-01-01T00:00:00Z</time></trkpt><trkpt lat="38.809418" lon="-5.110398"><ele>458.577</ele><time>1970-01-01T00:00:00Z</time></trkpt><trkpt lat="38.809613" lon="-5.110403"><ele>456.548</ele><time>1970-01-01T00:00:00Z</time></trkpt><trkpt lat="38.811432" lon="-5.110412"><ele>440.970</ele><time>1970-01-01T00:00:00Z</time></trkpt><trkpt lat="38.811904" lon="-5.110455"><ele>437.458</ele><time>1970-01-01T00:00:00Z</time></trkpt><trkpt lat="38.812381" lon="-5.110433"><ele>433.252</ele><time>1970-01-01T00:00:00Z</time></trkpt><trkpt lat="38.813078" lon="-5.110460"><ele>428.817</ele><time>1970-01-01T00:00:00Z</time></trkpt><trkpt lat="38.813685" lon="-5.110476"><ele>425.208</ele><time>1970-01-01T00:00:00Z</time></trkpt><trkpt lat="38.813974" lon="-5.110481"><ele>422.868</ele><time>1970-01-01T00:00:00Z</time></trkpt><trkpt lat="38.814362" lon="-5.110565"><ele>419.545</ele><time>1970-01-01T00:00:00Z</time></trkpt><trkpt lat="38.814742" lon="-5.110634"><ele>416.223</ele><time>1970-01-01T00:00:00Z</time></trkpt><trkpt lat="38.815161" lon="-5.110704"><ele>413.493</ele><time>1970-01-01T00:00:00Z</time></trkpt><trkpt lat="38.815488" lon="-5.110752"><ele>411.489</ele><time>1970-01-01T00:00:00Z</time></trkpt><trkpt lat="38.816028" lon="-5.110858"><ele>408.286</ele><time>1970-01-01T00:00:00Z</time></trkpt><trkpt lat="38.816151" lon="-5.110832"><ele>406.847</ele><time>1970-01-01T00:00:00Z</time></trkpt><trkpt lat="38.816232" lon="-5.110805"><ele>405.849</ele><time>1970-01-01T00:00:00Z</time></trkpt><trkpt lat="38.816430" lon="-5.110901"><ele>404.443</ele><time>1970-01-01T00:00:00Z</time></trkpt><trkpt lat="38.816597" lon="-5.110891"><ele>402.964</ele><time>1970-01-01T00:00:00Z</time></trkpt><trkpt lat="38.816683" lon="-5.110858"><ele>402.110</ele><time>1970-01-01T00:00:00Z</time></trkpt><trkpt lat="38.816736" lon="-5.110799"><ele>401.608</ele><time>1970-01-01T00:00:00Z</time></trkpt></trkseg></trk></gpx>